Wetterdaten: Montag, 04.10.2021
Datum Zeit Temperatur Temp. +5 cm Temp. -10 cm Feuchte A. Luftdruck Regen Wind Richtung Richtung Zeit Sonne UV-I Solarstrahlg Taupunkt Windchill Windben
04.10.2021 00:00 16,6 C 14,4 C 16,1 C 82 % 1011,9 hPa 0,0 l/m 3,4 km/h (1 Bft) W-NW 283 0 min 0,0 UV-I 0 W/m 13,5 C 16,6 C 4,8 km/h (1 Bft)
04.10.2021 00:02 16,6 C 14,4 C 16,1 C 82 % 1011,9 hPa 0,0 l/m 3,1 km/h (1 Bft) W-NW 283 0 min 0,0 UV-I 0 W/m 13,5 C 16,6 C 4,8 km/h (1 Bft)
04.10.2021 00:04 16,6 C 14,4 C 16,1 C 82 % 1011,9 hPa 0,0 l/m 3,7 km/h (1 Bft) W 265 0 min 0,0 UV-I 0 W/m 13,5 C 16,6 C 4,8 km/h (1 Bft)
04.10.2021 00:06 16,5 C 14,4 C 16,1 C 82 % 1011,9 hPa 0,0 l/m 3,5 km/h (1 Bft) W 264 0 min 0,0 UV-I 0 W/m 13,4 C 16,5 C 4,8 km/h (1 Bft)
04.10.2021 00:08 16,5 C 14,4 C 16,1 C 82 % 1011,9 hPa 0,0 l/m 3,4 km/h (1 Bft) W 269 0 min 0,0 UV-I 0 W/m 13,4 C 16,5 C 4,8 km/h (1 Bft)
04.10.2021 00:10 16,5 C 14,4 C 16,1 C 83 % 1011,9 hPa 0,0 l/m 4,1 km/h (1 Bft) W 268 0 min 0,0 UV-I 0 W/m 13,6 C 16,5 C 6,4 km/h (2 Bft)
04.10.2021 00:12 16,5 C 14,4 C 16,1 C 83 % 1011,9 hPa 0,0 l/m 4,4 km/h (1 Bft) W 272 0 min 0,0 UV-I 0 W/m 13,6 C 16,5 C 6,4 km/h (2 Bft)
04.10.2021 00:14 16,4 C 14,4 C 16,1 C 83 % 1011,9 hPa 0,0 l/m 4,2 km/h (1 Bft) W 262 0 min 0,0 UV-I 0 W/m 13,5 C 16,4 C 8,0 km/h (2 Bft)
04.10.2021 00:16 16,4 C 14,4 C 16,1 C 83 % 1011,9 hPa 0,0 l/m 5,0 km/h (1 Bft) W 265 0 min 0,0 UV-I 0 W/m 13,5 C 16,4 C 8,0 km/h (2 Bft)
04.10.2021 00:18 16,4 C 15,0 C 16,1 C 83 % 1011,9 hPa 0,0 l/m 5,6 km/h (2 Bft) W 263 0 min 0,0 UV-I 0 W/m 13,5 C 16,4 C 8,0 km/h (2 Bft)
04.10.2021 00:20 16,5 C 15,0 C 16,1 C 83 % 1011,9 hPa 0,0 l/m 6,0 km/h (2 Bft) W 276 0 min 0,0 UV-I 0 W/m 13,6 C 16,5 C 9,7 km/h (2 Bft)
04.10.2021 00:22 16,6 C 15,0 C 16,1 C 83 % 1011,8 hPa 0,0 l/m 5,5 km/h (2 Bft) W 269 0 min 0,0 UV-I 0 W/m 13,7 C 16,6 C 9,7 km/h (2 Bft)
04.10.2021 00:24 16,6 C 15,0 C 16,1 C 83 % 1011,8 hPa 0,0 l/m 4,8 km/h (1 Bft) W-NW 284 0 min 0,0 UV-I 0 W/m 13,7 C 16,6 C 6,4 km/h (2 Bft)
04.10.2021 00:26 16,7 C 15,0 C 16,1 C 82 % 1011,8 hPa 0,0 l/m 4,1 km/h (1 Bft) W 263 0 min 0,0 UV-I 0 W/m 13,6 C 16,7 C 6,4 km/h (2 Bft)
04.10.2021 00:28 16,6 C 15,0 C 16,1 C 82 % 1011,9 hPa 0,0 l/m 4,4 km/h (1 Bft) W 267 0 min 0,0 UV-I 0 W/m 13,5 C 16,6 C 8,0 km/h (2 Bft)
04.10.2021 00:30 16,6 C 15,0 C 16,1 C 82 % 1011,9 hPa 0,0 l/m 4,8 km/h (1 Bft) W-SW 243 0 min 0,0 UV-I 0 W/m 13,5 C 16,6 C 8,0 km/h (2 Bft)
04.10.2021 00:32 16,7 C 15,0 C 16,1 C 82 % 1011,9 hPa 0,0 l/m 5,3 km/h (1 Bft) W 261 0 min 0,0 UV-I 0 W/m 13,6 C 16,7 C 11,3 km/h (2 Bft)
04.10.2021 00:34 16,7 C 15,0 C 16,1 C 82 % 1011,9 hPa 0,0 l/m 5,0 km/h (1 Bft) W 264 0 min 0,0 UV-I 0 W/m 13,6 C 16,7 C 8,0 km/h (2 Bft)
04.10.2021 00:36 16,7 C 15,0 C 16,1 C 82 % 1011,9 hPa 0,0 l/m 6,0 km/h (2 Bft) W 262 0 min 0,0 UV-I 0 W/m 13,6 C 16,7 C 9,7 km/h (2 Bft)
04.10.2021 00:38 16,7 C 15,0 C 16,1 C 82 % 1012,0 hPa 0,0 l/m 5,3 km/h (1 Bft) W-SW 254 0 min 0,0 UV-I 0 W/m 13,6 C 16,7 C 8,0 km/h (2 Bft)
04.10.2021 00:40 16,7 C 15,0 C 16,1 C 81 % 1012,0 hPa 0,0 l/m 5,2 km/h (1 Bft) W 269 0 min 0,0 UV-I 0 W/m 13,4 C 16,7 C 9,7 km/h (2 Bft)
04.10.2021 00:42 16,8 C 14,4 C 16,1 C 81 % 1012,0 hPa 0,0 l/m 5,4 km/h (2 Bft) W-NW 283 0 min 0,0 UV-I 0 W/m 13,5 C 16,8 C 11,3 km/h (2 Bft)
04.10.2021 00:44 16,8 C 15,0 C 16,1 C 81 % 1012,1 hPa 0,0 l/m 6,3 km/h (2 Bft) W 274 0 min 0,0 UV-I 0 W/m 13,5 C 16,8 C 9,7 km/h (2 Bft)
04.10.2021 00:46 16,9 C 15,0 C 16,1 C 81 % 1012,2 hPa 0,0 l/m 4,4 km/h (1 Bft) W 272 0 min 0,0 UV-I 0 W/m 13,6 C 16,9 C 8,0 km/h (2 Bft)
04.10.2021 00:48 16,9 C 15,0 C 16,1 C 81 % 1012,2 hPa 0,0 l/m 5,6 km/h (2 Bft) W-NW 285 0 min 0,0 UV-I 0 W/m 13,6 C 16,9 C 9,7 km/h (2 Bft)
04.10.2021 00:50 16,9 C 15,0 C 16,1 C 80 % 1012,3 hPa 0,0 l/m 5,1 km/h (1 Bft) W 269 0 min 0,0 UV-I 0 W/m 13,4 C 16,9 C 11,3 km/h (2 Bft)
04.10.2021 00:52 16,9 C 15,0 C 16,1 C 80 % 1012,3 hPa 0,0 l/m 5,2 km/h (1 Bft) W 262 0 min 0,0 UV-I 0 W/m 13,4 C 16,9 C 11,3 km/h (2 Bft)
04.10.2021 00:54 16,9 C 15,0 C 16,1 C 80 % 1012,2 hPa 0,0 l/m 5,7 km/h (2 Bft) W 261 0 min 0,0 UV-I 0 W/m 13,4 C 16,9 C 9,7 km/h (2 Bft)
04.10.2021 00:56 16,9 C 15,0 C 16,1 C 80 % 1012,3 hPa 0,0 l/m 5,9 km/h (2 Bft) W-NW 301 0 min 0,0 UV-I 0 W/m 13,4 C 16,9 C 11,3 km/h (2 Bft)
04.10.2021 00:58 16,9 C 15,0 C 16,1 C 80 % 1012,3 hPa 0,0 l/m 3,4 km/h (1 Bft) W 274 0 min 0,0 UV-I 0 W/m 13,4 C 16,9 C 6,4 km/h (2 Bft)
04.10.2021 01:00 16,9 C 15,0 C 16,1 C 80 % 1012,4 hPa 0,0 l/m 4,1 km/h (1 Bft) W 271 0 min 0,0 UV-I 0 W/m 13,4 C 16,9 C 6,4 km/h (2 Bft)
04.10.2021 01:02 16,9 C 15,0 C 16,1 C 80 % 1012,5 hPa 0,0 l/m 5,5 km/h (2 Bft) NW 317 0 min 0,0 UV-I 0 W/m 13,4 C 16,9 C 8,0 km/h (2 Bft)
04.10.2021 01:04 17,0 C 15,0 C 16,1 C 80 % 1012,4 hPa 0,0 l/m 5,0 km/h (1 Bft) W-NW 300 0 min 0,0 UV-I 0 W/m 13,5 C 17,0 C 9,7 km/h (2 Bft)
04.10.2021 01:06 17,0 C 15,0 C 16,1 C 80 % 1012,5 hPa 0,0 l/m 5,8 km/h (2 Bft) W-SW 243 0 min 0,0 UV-I 0 W/m 13,5 C 17,0 C 11,3 km/h (2 Bft)
04.10.2021 01:08 17,1 C 15,0 C 16,1 C 79 % 1012,5 hPa 0,0 l/m 5,8 km/h (2 Bft) W-SW 252 0 min 0,0 UV-I 0 W/m 13,4 C 17,1 C 9,7 km/h (2 Bft)
04.10.2021 01:10 17,1 C 15,0 C 16,1 C 79 % 1012,6 hPa 0,0 l/m 4,8 km/h (1 Bft) W 265 0 min 0,0 UV-I 0 W/m 13,4 C 17,1 C 8,0 km/h (2 Bft)
04.10.2021 01:12 17,0 C 15,0 C 16,1 C 80 % 1012,5 hPa 0,0 l/m 5,3 km/h (1 Bft) W 269 0 min 0,0 UV-I 0 W/m 13,5 C 17,0 C 8,0 km/h (2 Bft)
04.10.2021 01:14 16,9 C 15,0 C 16,1 C 80 % 1012,6 hPa 0,0 l/m 5,4 km/h (2 Bft) W-NW 292 0 min 0,0 UV-I 0 W/m 13,4 C 16,9 C 8,0 km/h (2 Bft)
04.10.2021 01:16 16,9 C 15,0 C 16,1 C 80 % 1012,6 hPa 0,0 l/m 6,6 km/h (2 Bft) W 280 0 min 0,0 UV-I 0 W/m 13,4 C 16,9 C 11,3 km/h (2 Bft)
04.10.2021 01:18 16,9 C 15,0 C 16,1 C 80 % 1012,6 hPa 0,0 l/m 5,6 km/h (2 Bft) W 265 0 min 0,0 UV-I 0 W/m 13,4 C 16,9 C 8,0 km/h (2 Bft)
04.10.2021 01:20 17,0 C 15,0 C 16,1 C 80 % 1012,6 hPa 0,0 l/m 5,5 km/h (2 Bft) W 267 0 min 0,0 UV-I 0 W/m 13,5 C 17,0 C 8,0 km/h (2 Bft)
04.10.2021 01:22 17,0 C 15,0 C 16,1 C 80 % 1012,7 hPa 0,0 l/m 5,6 km/h (2 Bft) W-NW 292 0 min 0,0 UV-I 0 W/m 13,5 C 17,0 C 11,3 km/h (2 Bft)
04.10.2021 01:24 17,0 C 15,0 C 16,1 C 80 % 1012,7 hPa 0,0 l/m 4,5 km/h (1 Bft) W-NW 289 0 min 0,0 UV-I 0 W/m 13,5 C 17,0 C 8,0 km/h (2 Bft)
04.10.2021 01:26 16,9 C 15,0 C 16,1 C 80 % 1012,7 hPa 0,0 l/m 6,0 km/h (2 Bft) W-NW 297 0 min 0,0 UV-I 0 W/m 13,4 C 16,9 C 11,3 km/h (2 Bft)
04.10.2021 01:28 16,9 C 15,0 C 16,1 C 80 % 1012,8 hPa 0,2 l/m 5,9 km/h (2 Bft) W-SW 249 0 min 0,0 UV-I 0 W/m 13,4 C 16,9 C 8,0 km/h (2 Bft)
04.10.2021 01:30 16,8 C 15,0 C 16,1 C 81 % 1012,8 hPa 0,0 l/m 4,8 km/h (1 Bft) W 268 0 min 0,0 UV-I 0 W/m 13,5 C 16,8 C 11,3 km/h (2 Bft)
04.10.2021 01:32 16,8 C 15,0 C 16,1 C 81 % 1012,8 hPa 0,0 l/m 6,5 km/h (2 Bft) W-NW 287 0 min 0,0 UV-I 0 W/m 13,5 C 16,8 C 9,7 km/h (2 Bft)
04.10.2021 01:34 16,8 C 15,0 C 16,1 C 81 % 1012,9 hPa 0,0 l/m 5,0 km/h (1 Bft) W-NW 289 0 min 0,0 UV-I 0 W/m 13,5 C 16,8 C 9,7 km/h (2 Bft)
04.10.2021 01:36 16,7 C 15,0 C 16,1 C 81 % 1012,9 hPa 0,0 l/m 6,0 km/h (2 Bft) NW 308 0 min 0,0 UV-I 0 W/m 13,4 C 16,7 C 14,5 km/h (3 Bft)
04.10.2021 01:38 16,7 C 15,0 C 16,1 C 82 % 1013,0 hPa 0,0 l/m 4,5 km/h (1 Bft) W 281 0 min 0,0 UV-I 0 W/m 13,6 C 16,7 C 8,0 km/h (2 Bft)
04.10.2021 01:40 16,6 C 15,0 C 16,1 C 82 % 1013,0 hPa 0,0 l/m 3,9 km/h (1 Bft) W 271 0 min 0,0 UV-I 0 W/m 13,5 C 16,6 C 8,0 km/h (2 Bft)
04.10.2021 01:42 16,6 C 15,0 C 16,1 C 82 % 1013,0 hPa 0,0 l/m 3,3 km/h (1 Bft) W-NW 302 0 min 0,0 UV-I 0 W/m 13,5 C 16,6 C 8,0 km/h (2 Bft)
04.10.2021 01:44 16,6 C 15,0 C 16,1 C 82 % 1013,0 hPa 0,0 l/m 3,5 km/h (1 Bft) W 277 0 min 0,0 UV-I 0 W/m 13,5 C 16,6 C 8,0 km/h (2 Bft)
04.10.2021 01:46 16,6 C 15,0 C 16,1 C 82 % 1012,9 hPa 0,0 l/m 3,4 km/h (1 Bft) W 259 0 min 0,0 UV-I 0 W/m 13,5 C 16,6 C 4,8 km/h (1 Bft)
04.10.2021 01:48 16,5 C 14,4 C 16,1 C 82 % 1012,9 hPa 0,2 l/m 4,9 km/h (1 Bft) W-NW 289 0 min 0,0 UV-I 0 W/m 13,4 C 16,5 C 6,4 km/h (2 Bft)
04.10.2021 01:50 16,5 C 14,4 C 16,1 C 82 % 1012,9 hPa 0,0 l/m 3,6 km/h (1 Bft) W 264 0 min 0,0 UV-I 0 W/m 13,4 C 16,5 C 6,4 km/h (2 Bft)
04.10.2021 01:52 16,4 C 14,4 C 16,1 C 83 % 1012,9 hPa 0,0 l/m 4,2 km/h (1 Bft) W 272 0 min 0,0 UV-I 0 W/m 13,5 C 16,4 C 6,4 km/h (2 Bft)
04.10.2021 01:54 16,4 C 14,4 C 16,1 C 83 % 1013,0 hPa 0,0 l/m 4,3 km/h (1 Bft) W 269 0 min 0,0 UV-I 0 W/m 13,5 C 16,4 C 6,4 km/h (2 Bft)
04.10.2021 01:56 16,3 C 14,4 C 16,1 C 83 % 1013,0 hPa 0,0 l/m 4,3 km/h (1 Bft) W 281 0 min 0,0 UV-I 0 W/m 13,4 C 16,3 C 6,4 km/h (2 Bft)
04.10.2021 01:58 16,3 C 14,4 C 16,1 C 84 % 1013,1 hPa 0,0 l/m 3,3 km/h (1 Bft) W-NW 287 0 min 0,0 UV-I 0 W/m 13,6 C 16,3 C 4,8 km/h (1 Bft)
04.10.2021 02:00 16,3 C 14,4 C 16,1 C 84 % 1013,1 hPa 0,0 l/m 3,8 km/h (1 Bft) W 274 0 min 0,0 UV-I 0 W/m 13,6 C 16,3 C 8,0 km/h (2 Bft)
04.10.2021 02:02 16,2 C 14,4 C 16,1 C 84 % 1013,1 hPa 0,0 l/m 2,7 km/h (1 Bft) W 271 0 min 0,0 UV-I 0 W/m 13,5 C 16,2 C 6,4 km/h (2 Bft)
04.10.2021 02:04 16,2 C 14,4 C 16,1 C 84 % 1013,2 hPa 0,0 l/m 3,9 km/h (1 Bft) W-NW 299 0 min 0,0 UV-I 0 W/m 13,5 C 16,2 C 6,4 km/h (2 Bft)
04.10.2021 02:06 16,2 C 14,4 C 16,1 C 84 % 1013,2 hPa 0,0 l/m 2,4 km/h (1 Bft) W 279 0 min 0,0 UV-I 0 W/m 13,5 C 16,2 C 4,8 km/h (1 Bft)
04.10.2021 02:08 16,2 C 14,4 C 16,1 C 84 % 1013,2 hPa 0,0 l/m 2,4 km/h (1 Bft) W-NW 289 0 min 0,0 UV-I 0 W/m 13,5 C 16,2 C 4,8 km/h (1 Bft)
04.10.2021 02:10 16,1 C 14,4 C 16,1 C 85 % 1013,2 hPa 0,0 l/m 2,6 km/h (1 Bft) W 271 0 min 0,0 UV-I 0 W/m 13,6 C 16,1 C 4,8 km/h (1 Bft)
04.10.2021 02:12 16,1 C 14,4 C 16,1 C 85 % 1013,2 hPa 0,0 l/m 1,8 km/h (1 Bft) W 260 0 min 0,0 UV-I 0 W/m 13,6 C 16,1 C 4,8 km/h (1 Bft)
04.10.2021 02:14 16,1 C 14,4 C 16,1 C 85 % 1013,2 hPa 0,0 l/m 2,3 km/h (1 Bft) W 260 0 min 0,0 UV-I 0 W/m 13,6 C 16,1 C 4,8 km/h (1 Bft)
04.10.2021 02:16 16,1 C 14,4 C 16,1 C 85 % 1013,2 hPa 0,0 l/m 3,9 km/h (1 Bft) W 275 0 min 0,0 UV-I 0 W/m 13,6 C 16,1 C 4,8 km/h (1 Bft)
04.10.2021 02:18 16,0 C 14,4 C 16,1 C 85 % 1013,2 hPa 0,0 l/m 3,4 km/h (1 Bft) W-NW 292 0 min 0,0 UV-I 0 W/m 13,5 C 16,0 C 6,4 km/h (2 Bft)
04.10.2021 02:20 16,0 C 14,4 C 16,1 C 85 % 1013,3 hPa 0,2 l/m 2,9 km/h (1 Bft) W-NW 292 0 min 0,0 UV-I 0 W/m 13,5 C 16,0 C 4,8 km/h (1 Bft)
04.10.2021 02:22 16,0 C 14,4 C 16,1 C 85 % 1013,4 hPa 0,0 l/m 2,3 km/h (1 Bft) W-NW 296 0 min 0,0 UV-I 0 W/m 13,5 C 16,0 C 4,8 km/h (1 Bft)
04.10.2021 02:24 16,1 C 14,4 C 16,1 C 85 % 1013,5 hPa 0,0 l/m 8,2 km/h (2 Bft) W-NW 301 0 min 0,0 UV-I 0 W/m 13,6 C 16,1 C 22,5 km/h (4 Bft)
04.10.2021 02:26 16,1 C 15,0 C 16,1 C 85 % 1013,6 hPa 0,0 l/m 11,0 km/h (2 Bft) NW 321 0 min 0,0 UV-I 0 W/m 13,6 C 16,1 C 20,9 km/h (4 Bft)
04.10.2021 02:28 16,1 C 15,0 C 16,1 C 85 % 1013,6 hPa 0,0 l/m 9,5 km/h (2 Bft) NW 312 0 min 0,0 UV-I 0 W/m 13,6 C 16,1 C 17,7 km/h (3 Bft)
04.10.2021 02:30 16,1 C 14,4 C 16,1 C 85 % 1013,7 hPa 0,0 l/m 4,5 km/h (1 Bft) NW 314 0 min 0,0 UV-I 0 W/m 13,6 C 16,1 C 8,0 km/h (2 Bft)
04.10.2021 02:33 16,1 C 14,4 C 16,1 C 85 % 1013,6 hPa 0,0 l/m 5,4 km/h (2 Bft) N 1 0 min 0,0 UV-I 0 W/m 13,6 C 16,1 C 9,7 km/h (2 Bft)
04.10.2021 02:34 16,0 C 14,4 C 16,1 C 85 % 1013,6 hPa 0,0 l/m 10,4 km/h (2 Bft) N 355 0 min 0,0 UV-I 0 W/m 13,5 C 16,0 C 12,9 km/h (3 Bft)
04.10.2021 02:36 16,0 C 14,4 C 16,1 C 85 % 1013,6 hPa 0,0 l/m 7,5 km/h (2 Bft) N-NW 333 0 min 0,0 UV-I 0 W/m 13,5 C 16,0 C 12,9 km/h (3 Bft)
04.10.2021 02:38 15,9 C 14,4 C 16,1 C 84 % 1013,7 hPa 0,0 l/m 3,7 km/h (1 Bft) N-NW 334 0 min 0,0 UV-I 0 W/m 13,2 C 15,9 C 11,3 km/h (2 Bft)
04.10.2021 02:40 15,9 C 14,4 C 16,1 C 84 % 1013,7 hPa 0,0 l/m 4,9 km/h (1 Bft) N-NW 342 0 min 0,0 UV-I 0 W/m 13,2 C 15,9 C 14,5 km/h (3 Bft)
04.10.2021 02:42 15,8 C 14,4 C 16,1 C 84 % 1013,8 hPa 0,0 l/m 6,1 km/h (2 Bft) NW 322 0 min 0,0 UV-I 0 W/m 13,1 C 15,8 C 12,9 km/h (3 Bft)
04.10.2021 02:44 15,8 C 13,9 C 16,1 C 84 % 1013,9 hPa 0,0 l/m 6,7 km/h (2 Bft) N 357 0 min 0,0 UV-I 0 W/m 13,1 C 15,8 C 16,1 km/h (3 Bft)
04.10.2021 02:46 15,7 C 13,9 C 16,1 C 84 % 1013,9 hPa 0,0 l/m 8,5 km/h (2 Bft) N 6 0 min 0,0 UV-I 0 W/m 13,0 C 15,7 C 14,5 km/h (3 Bft)
04.10.2021 02:48 15,7 C 13,9 C 16,1 C 84 % 1013,9 hPa 0,0 l/m 6,1 km/h (2 Bft) N-NW 343 0 min 0,0 UV-I 0 W/m 13,0 C 15,7 C 9,7 km/h (2 Bft)
04.10.2021 02:50 15,7 C 13,9 C 16,1 C 84 % 1013,9 hPa 0,2 l/m 6,1 km/h (2 Bft) N-NW 348 0 min 0,0 UV-I 0 W/m 13,0 C 15,7 C 12,9 km/h (3 Bft)
04.10.2021 02:52 15,6 C 13,9 C 16,1 C 84 % 1013,9 hPa 0,0 l/m 7,3 km/h (2 Bft) N 5 0 min 0,0 UV-I 0 W/m 12,9 C 15,6 C 12,9 km/h (3 Bft)
04.10.2021 02:54 15,5 C 13,9 C 16,1 C 84 % 1014,0 hPa 0,0 l/m 4,0 km/h (1 Bft) N-NW 348 0 min 0,0 UV-I 0 W/m 12,8 C 15,5 C 9,7 km/h (2 Bft)
04.10.2021 02:56 15,4 C 13,9 C 16,1 C 84 % 1014,0 hPa 0,0 l/m 4,6 km/h (1 Bft) N 357 0 min 0,0 UV-I 0 W/m 12,7 C 15,4 C 9,7 km/h (2 Bft)
04.10.2021 02:58 15,4 C 13,9 C 16,1 C 84 % 1014,0 hPa 0,0 l/m 4,9 km/h (1 Bft) N 352 0 min 0,0 UV-I 0 W/m 12,7 C 15,4 C 8,0 km/h (2 Bft)
04.10.2021 03:00 15,3 C 13,9 C 16,1 C 84 % 1014,0 hPa 0,0 l/m 4,6 km/h (1 Bft) N-NW 336 0 min 0,0 UV-I 0 W/m 12,6 C 15,3 C 8,0 km/h (2 Bft)
04.10.2021 03:02 15,3 C 13,9 C 16,1 C 85 % 1014,1 hPa 0,0 l/m 5,2 km/h (1 Bft) N-NW 331 0 min 0,0 UV-I 0 W/m 12,8 C 15,3 C 9,7 km/h (2 Bft)
04.10.2021 03:04 15,3 C 13,9 C 16,1 C 85 % 1014,1 hPa 0,0 l/m 4,1 km/h (1 Bft) N-NW 335 0 min 0,0 UV-I 0 W/m 12,8 C 15,3 C 6,4 km/h (2 Bft)
04.10.2021 03:06 15,2 C 13,9 C 16,1 C 85 % 1014,1 hPa 0,0 l/m 4,9 km/h (1 Bft) N 349 0 min 0,0 UV-I 0 W/m 12,7 C 15,2 C 9,7 km/h (2 Bft)
04.10.2021 03:08 15,2 C 13,9 C 16,1 C 85 % 1014,1 hPa 0,0 l/m 3,7 km/h (1 Bft) N-NW 346 0 min 0,0 UV-I 0 W/m 12,7 C 15,2 C 6,4 km/h (2 Bft)
04.10.2021 03:10 15,1 C 13,9 C 16,1 C 85 % 1014,1 hPa 0,0 l/m 5,4 km/h (2 Bft) NW 309 0 min 0,0 UV-I 0 W/m 12,6 C 15,1 C 11,3 km/h (2 Bft)
04.10.2021 03:12 15,1 C 13,9 C 16,1 C 85 % 1014,2 hPa 0,0 l/m 4,3 km/h (1 Bft) N-NW 343 0 min 0,0 UV-I 0 W/m 12,6 C 15,1 C 8,0 km/h (2 Bft)
04.10.2021 03:14 15,1 C 13,9 C 16,1 C 85 % 1014,1 hPa 0,0 l/m 5,5 km/h (2 Bft) NW 321 0 min 0,0 UV-I 0 W/m 12,6 C 15,1 C 9,7 km/h (2 Bft)
04.10.2021 03:16 15,1 C 13,9 C 16,1 C 85 % 1014,1 hPa 0,0 l/m 5,5 km/h (2 Bft) N-NW 348 0 min 0,0 UV-I 0 W/m 12,6 C 15,1 C 9,7 km/h (2 Bft)
04.10.2021 03:18 15,0 C 13,3 C 16,1 C 85 % 1014,1 hPa 0,0 l/m 4,9 km/h (1 Bft) N-NW 331 0 min 0,0 UV-I 0 W/m 12,5 C 15,0 C 8,0 km/h (2 Bft)
04.10.2021 03:20 15,0 C 13,3 C 16,1 C 85 % 1014,1 hPa 0,0 l/m 4,6 km/h (1 Bft) N-NW 331 0 min 0,0 UV-I 0 W/m 12,5 C 15,0 C 8,0 km/h (2 Bft)
04.10.2021 03:22 14,9 C 13,3 C 16,1 C 85 % 1014,1 hPa 0,0 l/m 3,5 km/h (1 Bft) N-NO 21 0 min 0,0 UV-I 0 W/m 12,4 C 14,9 C 6,4 km/h (2 Bft)
04.10.2021 03:24 14,9 C 13,3 C 16,1 C 85 % 1014,1 hPa 0,0 l/m 5,2 km/h (1 Bft) N 360 0 min 0,0 UV-I 0 W/m 12,4 C 14,9 C 8,0 km/h (2 Bft)
04.10.2021 03:26 14,9 C 13,9 C 16,1 C 85 % 1014,1 hPa 0,0 l/m 4,9 km/h (1 Bft) N-NW 327 0 min 0,0 UV-I 0 W/m 12,4 C 14,9 C 6,4 km/h (2 Bft)
04.10.2021 03:28 14,9 C 13,3 C 16,1 C 85 % 1014,1 hPa 0,0 l/m 4,6 km/h (1 Bft) N 351 0 min 0,0 UV-I 0 W/m 12,4 C 14,9 C 6,4 km/h (2 Bft)
04.10.2021 03:30 14,9 C 13,3 C 16,1 C 86 % 1014,3 hPa 0,0 l/m 5,1 km/h (1 Bft) N-NW 337 0 min 0,0 UV-I 0 W/m 12,6 C 14,9 C 9,7 km/h (2 Bft)
04.10.2021 03:32 14,8 C 13,9 C 16,1 C 86 % 1014,4 hPa 0,0 l/m 5,7 km/h (2 Bft) NW 325 0 min 0,0 UV-I 0 W/m 12,5 C 14,8 C 8,0 km/h (2 Bft)
04.10.2021 03:34 14,8 C 13,9 C 16,1 C 85 % 1014,4 hPa 0,0 l/m 5,7 km/h (2 Bft) N 350 0 min 0,0 UV-I 0 W/m 12,3 C 14,8 C 8,0 km/h (2 Bft)
04.10.2021 03:36 14,8 C 13,3 C 16,1 C 85 % 1014,4 hPa 0,0 l/m 3,1 km/h (1 Bft) N-NW 333 0 min 0,0 UV-I 0 W/m 12,3 C 14,8 C 4,8 km/h (1 Bft)
04.10.2021 03:38 14,8 C 13,9 C 16,1 C 86 % 1014,5 hPa 0,0 l/m 3,9 km/h (1 Bft) N-NW 338 0 min 0,0 UV-I 0 W/m 12,5 C 14,8 C 6,4 km/h (2 Bft)
04.10.2021 03:40 14,8 C 13,9 C 16,1 C 86 % 1014,4 hPa 0,0 l/m 2,7 km/h (1 Bft) NW 323 0 min 0,0 UV-I 0 W/m 12,5 C 14,8 C 6,4 km/h (2 Bft)
04.10.2021 03:42 14,8 C 13,9 C 16,1 C 86 % 1014,4 hPa 0,0 l/m 4,5 km/h (1 Bft) N-NW 348 0 min 0,0 UV-I 0 W/m 12,5 C 14,8 C 12,9 km/h (3 Bft)
04.10.2021 03:44 14,8 C 13,9 C 16,1 C 86 % 1014,5 hPa 0,0 l/m 4,8 km/h (1 Bft) N 4 0 min 0,0 UV-I 0 W/m 12,5 C 14,8 C 8,0 km/h (2 Bft)
04.10.2021 03:46 14,8 C 13,9 C 16,1 C 86 % 1014,5 hPa 0,0 l/m 5,2 km/h (1 Bft) N 357 0 min 0,0 UV-I 0 W/m 12,5 C 14,8 C 8,0 km/h (2 Bft)
04.10.2021 03:48 14,8 C 13,9 C 16,1 C 86 % 1014,5 hPa 0,0 l/m 3,5 km/h (1 Bft) N 11 0 min 0,0 UV-I 0 W/m 12,5 C 14,8 C 8,0 km/h (2 Bft)
04.10.2021 03:50 14,8 C 13,9 C 16,1 C 86 % 1014,5 hPa 0,2 l/m 5,5 km/h (2 Bft) N 4 0 min 0,0 UV-I 0 W/m 12,5 C 14,8 C 8,0 km/h (2 Bft)
04.10.2021 03:52 14,8 C 13,9 C 16,1 C 86 % 1014,5 hPa 0,0 l/m 5,4 km/h (2 Bft) N 355 0 min 0,0 UV-I 0 W/m 12,5 C 14,8 C 11,3 km/h (2 Bft)
04.10.2021 03:54 14,7 C 13,3 C 16,1 C 86 % 1014,6 hPa 0,0 l/m 5,9 km/h (2 Bft) NW 324 0 min 0,0 UV-I 0 W/m 12,4 C 14,7 C 9,7 km/h (2 Bft)
04.10.2021 03:56 14,7 C 13,3 C 16,1 C 86 % 1014,5 hPa 0,0 l/m 3,4 km/h (1 Bft) N 360 0 min 0,0 UV-I 0 W/m 12,4 C 14,7 C 8,0 km/h (2 Bft)
04.10.2021 03:58 14,7 C 13,3 C 16,1 C 86 % 1014,5 hPa 0,0 l/m 4,1 km/h (1 Bft) N 6 0 min 0,0 UV-I 0 W/m 12,4 C 14,7 C 6,4 km/h (2 Bft)
04.10.2021 04:00 14,7 C 13,3 C 16,1 C 86 % 1014,6 hPa 0,0 l/m 3,9 km/h (1 Bft) N 357 0 min 0,0 UV-I 0 W/m 12,4 C 14,7 C 6,4 km/h (2 Bft)
04.10.2021 04:02 14,7 C 13,3 C 16,1 C 86 % 1014,6 hPa 0,0 l/m 2,0 km/h (1 Bft) N 1 0 min 0,0 UV-I 0 W/m 12,4 C 14,7 C 4,8 km/h (1 Bft)
04.10.2021 04:04 14,6 C 13,3 C 16,1 C 86 % 1014,6 hPa 0,0 l/m 4,3 km/h (1 Bft) N 356 0 min 0,0 UV-I 0 W/m 12,3 C 14,6 C 6,4 km/h (2 Bft)
04.10.2021 04:06 14,6 C 13,3 C 16,1 C 86 % 1014,5 hPa 0,0 l/m 5,8 km/h (2 Bft) N-NO 18 0 min 0,0 UV-I 0 W/m 12,3 C 14,6 C 9,7 km/h (2 Bft)
04.10.2021 04:08 14,6 C 13,3 C 15,6 C 86 % 1014,6 hPa 0,0 l/m 4,2 km/h (1 Bft) N-NW 339 0 min 0,0 UV-I 0 W/m 12,3 C 14,6 C 8,0 km/h (2 Bft)
04.10.2021 04:10 14,6 C 13,3 C 16,1 C 86 % 1014,7 hPa 0,0 l/m 5,2 km/h (1 Bft) N-NW 346 0 min 0,0 UV-I 0 W/m 12,3 C 14,6 C 9,7 km/h (2 Bft)
04.10.2021 04:12 14,5 C 13,3 C 16,1 C 86 % 1014,7 hPa 0,0 l/m 5,1 km/h (1 Bft) N 10 0 min 0,0 UV-I 0 W/m 12,2 C 14,5 C 8,0 km/h (2 Bft)
04.10.2021 04:14 14,5 C 13,3 C 16,1 C 86 % 1014,7 hPa 0,0 l/m 5,4 km/h (2 Bft) N 349 0 min 0,0 UV-I 0 W/m 12,2 C 14,5 C 8,0 km/h (2 Bft)
04.10.2021 04:16 14,5 C 13,3 C 16,1 C 86 % 1014,7 hPa 0,0 l/m 4,1 km/h (1 Bft) N 2 0 min 0,0 UV-I 0 W/m 12,2 C 14,5 C 6,4 km/h (2 Bft)
04.10.2021 04:18 14,4 C 13,3 C 16,1 C 86 % 1014,7 hPa 0,0 l/m 3,8 km/h (1 Bft) N 359 0 min 0,0 UV-I 0 W/m 12,1 C 14,4 C 6,4 km/h (2 Bft)
04.10.2021 04:20 14,4 C 13,3 C 16,1 C 86 % 1014,7 hPa 0,0 l/m 3,6 km/h (1 Bft) N 11 0 min 0,0 UV-I 0 W/m 12,1 C 14,4 C 4,8 km/h (1 Bft)
04.10.2021 04:22 14,4 C 13,3 C 16,1 C 86 % 1014,7 hPa 0,0 l/m 2,6 km/h (1 Bft) N-NO 23 0 min 0,0 UV-I 0 W/m 12,1 C 14,4 C 4,8 km/h (1 Bft)
04.10.2021 04:24 14,4 C 13,3 C 16,1 C 86 % 1014,7 hPa 0,0 l/m 2,3 km/h (1 Bft) N-NO 23 0 min 0,0 UV-I 0 W/m 12,1 C 14,4 C 3,2 km/h (1 Bft)
04.10.2021 04:26 14,4 C 13,3 C 16,1 C 86 % 1014,8 hPa 0,0 l/m 6,0 km/h (2 Bft) N-NO 19 0 min 0,0 UV-I 0 W/m 12,1 C 14,4 C 11,3 km/h (2 Bft)
04.10.2021 04:28 14,3 C 13,3 C 16,1 C 85 % 1014,8 hPa 0,0 l/m 4,2 km/h (1 Bft) N 11 0 min 0,0 UV-I 0 W/m 11,8 C 14,3 C 8,0 km/h (2 Bft)
04.10.2021 04:30 14,3 C 13,3 C 15,6 C 85 % 1014,9 hPa 0,0 l/m 5,8 km/h (2 Bft) N-NO 23 0 min 0,0 UV-I 0 W/m 11,8 C 14,3 C 11,3 km/h (2 Bft)
04.10.2021 04:32 14,4 C 12,8 C 16,1 C 85 % 1014,9 hPa 0,0 l/m 4,9 km/h (1 Bft) N-NO 23 0 min 0,0 UV-I 0 W/m 11,9 C 14,4 C 6,4 km/h (2 Bft)
04.10.2021 04:34 14,4 C 12,8 C 16,1 C 85 % 1014,9 hPa 0,0 l/m 4,1 km/h (1 Bft) N 8 0 min 0,0 UV-I 0 W/m 11,9 C 14,4 C 6,4 km/h (2 Bft)
04.10.2021 04:36 14,4 C 13,3 C 16,1 C 85 % 1015,0 hPa 0,0 l/m 2,8 km/h (1 Bft) N 356 0 min 0,0 UV-I 0 W/m 11,9 C 14,4 C 4,8 km/h (1 Bft)
04.10.2021 04:38 14,4 C 13,3 C 16,1 C 85 % 1015,0 hPa 0,0 l/m 2,6 km/h (1 Bft) N 359 0 min 0,0 UV-I 0 W/m 11,9 C 14,4 C 4,8 km/h (1 Bft)
04.10.2021 04:40 14,4 C 13,3 C 16,1 C 85 % 1015,1 hPa 0,0 l/m 3,5 km/h (1 Bft) N-NO 19 0 min 0,0 UV-I 0 W/m 11,9 C 14,4 C 8,0 km/h (2 Bft)
04.10.2021 04:42 14,4 C 13,3 C 16,1 C 85 % 1015,1 hPa 0,0 l/m 2,0 km/h (1 Bft) N-NW 343 0 min 0,0 UV-I 0 W/m 11,9 C 14,4 C 4,8 km/h (1 Bft)
04.10.2021 04:44 14,3 C 13,3 C 16,1 C 85 % 1015,1 hPa 0,0 l/m 3,2 km/h (1 Bft) N 352 0 min 0,0 UV-I 0 W/m 11,8 C 14,3 C 4,8 km/h (1 Bft)
04.10.2021 04:46 14,3 C 13,3 C 16,1 C 85 % 1015,2 hPa 0,0 l/m 1,8 km/h (1 Bft) N 352 0 min 0,0 UV-I 0 W/m 11,8 C 14,3 C 3,2 km/h (1 Bft)
04.10.2021 04:48 14,3 C 13,3 C 16,1 C 85 % 1015,2 hPa 0,2 l/m 1,7 km/h (1 Bft) N 351 0 min 0,0 UV-I 0 W/m 11,8 C 14,3 C 4,8 km/h (1 Bft)
04.10.2021 04:50 14,3 C 12,8 C 16,1 C 85 % 1015,2 hPa 0,0 l/m 3,3 km/h (1 Bft) N-NW 348 0 min 0,0 UV-I 0 W/m 11,8 C 14,3 C 6,4 km/h (2 Bft)
04.10.2021 04:52 14,2 C 12,8 C 16,1 C 85 % 1015,2 hPa 0,0 l/m 2,9 km/h (1 Bft) N-NW 348 0 min 0,0 UV-I 0 W/m 11,7 C 14,2 C 4,8 km/h (1 Bft)
04.10.2021 04:54 14,2 C 12,8 C 16,1 C 85 % 1015,2 hPa 0,0 l/m 3,4 km/h (1 Bft) N 350 0 min 0,0 UV-I 0 W/m 11,7 C 14,2 C 4,8 km/h (1 Bft)
04.10.2021 04:56 14,2 C 12,8 C 15,6 C 85 % 1015,2 hPa 0,0 l/m 4,0 km/h (1 Bft) N 2 0 min 0,0 UV-I 0 W/m 11,7 C 14,2 C 6,4 km/h (2 Bft)
04.10.2021 04:58 14,2 C 12,8 C 15,6 C 85 % 1015,1 hPa 0,0 l/m 3,4 km/h (1 Bft) N 8 0 min 0,0 UV-I 0 W/m 11,7 C 14,2 C 4,8 km/h (1 Bft)
04.10.2021 05:00 14,1 C 12,8 C 16,1 C 85 % 1015,0 hPa 0,0 l/m 2,1 km/h (1 Bft) N 8 0 min 0,0 UV-I 0 W/m 11,6 C 14,1 C 3,2 km/h (1 Bft)
04.10.2021 05:02 14,1 C 12,8 C 16,1 C 85 % 1015,0 hPa 0,0 l/m 2,6 km/h (1 Bft) N-NO 24 0 min 0,0 UV-I 0 W/m 11,6 C 14,1 C 6,4 km/h (2 Bft)
04.10.2021 05:04 14,1 C 12,8 C 16,1 C 85 % 1015,1 hPa 0,0 l/m 3,9 km/h (1 Bft) N-NO 17 0 min 0,0 UV-I 0 W/m 11,6 C 14,1 C 6,4 km/h (2 Bft)
04.10.2021 05:06 14,0 C 12,8 C 15,6 C 85 % 1015,2 hPa 0,0 l/m 3,6 km/h (1 Bft) N-NO 19 0 min 0,0 UV-I 0 W/m 11,5 C 14,0 C 6,4 km/h (2 Bft)
04.10.2021 05:08 14,0 C 12,8 C 16,1 C 85 % 1015,2 hPa 0,0 l/m 2,6 km/h (1 Bft) N-NO 17 0 min 0,0 UV-I 0 W/m 11,5 C 14,0 C 4,8 km/h (1 Bft)
04.10.2021 05:10 14,0 C 12,8 C 16,1 C 86 % 1015,2 hPa 0,0 l/m 2,3 km/h (1 Bft) N-NO 24 0 min 0,0 UV-I 0 W/m 11,7 C 14,0 C 4,8 km/h (1 Bft)
04.10.2021 05:12 13,9 C 12,8 C 16,1 C 86 % 1015,3 hPa 0,0 l/m 1,6 km/h (1 Bft) N-NO 22 0 min 0,0 UV-I 0 W/m 11,6 C 13,9 C 3,2 km/h (1 Bft)
04.10.2021 05:14 13,9 C 12,8 C 15,6 C 86 % 1015,4 hPa 0,0 l/m 3,0 km/h (1 Bft) N 352 0 min 0,0 UV-I 0 W/m 11,6 C 13,9 C 4,8 km/h (1 Bft)
04.10.2021 05:16 13,9 C 12,8 C 16,1 C 86 % 1015,5 hPa 0,0 l/m 1,1 km/h (1 Bft) N 357 0 min 0,0 UV-I 0 W/m 11,6 C 13,9 C 3,2 km/h (1 Bft)
04.10.2021 05:18 13,9 C 12,8 C 16,1 C 86 % 1015,4 hPa 0,0 l/m 0,0 km/h (0 Bft) N 357 0 min 0,0 UV-I 0 W/m 11,6 C 13,9 C 0,0 km/h (0 Bft)
04.10.2021 05:20 13,9 C 12,8 C 16,1 C 86 % 1015,5 hPa 0,0 l/m 0,0 km/h (0 Bft) N 357 0 min 0,0 UV-I 0 W/m 11,6 C 13,9 C 1,6 km/h (1 Bft)
04.10.2021 05:22 13,8 C 12,8 C 16,1 C 86 % 1015,5 hPa 0,0 l/m 0,0 km/h (0 Bft) N 357 0 min 0,0 UV-I 0 W/m 11,5 C 13,8 C 0,0 km/h (0 Bft)
04.10.2021 05:24 13,8 C 12,8 C 16,1 C 86 % 1015,5 hPa 0,0 l/m 0,0 km/h (0 Bft) N 357 0 min 0,0 UV-I 0 W/m 11,5 C 13,8 C 0,0 km/h (0 Bft)
04.10.2021 05:26 13,8 C 12,8 C 16,1 C 86 % 1015,6 hPa 0,0 l/m 0,0 km/h (0 Bft) N 357 0 min 0,0 UV-I 0 W/m 11,5 C 13,8 C 0,0 km/h (0 Bft)
04.10.2021 05:28 13,8 C 12,8 C 16,1 C 87 % 1015,6 hPa 0,0 l/m 0,0 km/h (0 Bft) N 356 0 min 0,0 UV-I 0 W/m 11,7 C 13,8 C 0,0 km/h (0 Bft)
04.10.2021 05:30 13,8 C 12,8 C 15,6 C 87 % 1015,7 hPa 0,0 l/m 0,0 km/h (0 Bft) N 357 0 min 0,0 UV-I 0 W/m 11,7 C 13,8 C 0,0 km/h (0 Bft)
04.10.2021 05:32 13,7 C 12,8 C 15,6 C 87 % 1015,7 hPa 0,0 l/m 0,0 km/h (0 Bft) N 357 0 min 0,0 UV-I 0 W/m 11,6 C 13,7 C 0,0 km/h (0 Bft)
04.10.2021 05:34 13,7 C 12,8 C 15,6 C 87 % 1015,8 hPa 0,0 l/m 0,0 km/h (0 Bft) N 357 0 min 0,0 UV-I 0 W/m 11,6 C 13,7 C 0,0 km/h (0 Bft)
04.10.2021 05:36 13,7 C 12,8 C 15,6 C 87 % 1015,8 hPa 0,0 l/m 0,0 km/h (0 Bft) N 357 0 min 0,0 UV-I 0 W/m 11,6 C 13,7 C 0,0 km/h (0 Bft)
04.10.2021 05:38 13,7 C 12,8 C 16,1 C 87 % 1015,9 hPa 0,0 l/m 0,5 km/h (0 Bft) N 357 0 min 0,0 UV-I 0 W/m 11,6 C 13,7 C 1,6 km/h (1 Bft)
04.10.2021 05:40 13,7 C 12,8 C 15,6 C 87 % 1016,0 hPa 0,0 l/m 0,8 km/h (0 Bft) N 356 0 min 0,0 UV-I 0 W/m 11,6 C 13,7 C 3,2 km/h (1 Bft)
04.10.2021 05:42 13,7 C 12,8 C 16,1 C 87 % 1015,9 hPa 0,0 l/m 0,0 km/h (0 Bft) N 357 0 min 0,0 UV-I 0 W/m 11,6 C 13,7 C 0,0 km/h (0 Bft)
04.10.2021 05:44 13,6 C 12,8 C 16,1 C 87 % 1015,7 hPa 0,0 l/m 0,0 km/h (0 Bft) N 357 0 min 0,0 UV-I 0 W/m 11,5 C 13,6 C 0,0 km/h (0 Bft)
04.10.2021 05:46 13,6 C 12,8 C 15,6 C 87 % 1015,7 hPa 0,0 l/m 0,0 km/h (0 Bft) N 357 0 min 0,0 UV-I 0 W/m 11,5 C 13,6 C 0,0 km/h (0 Bft)
04.10.2021 05:48 13,6 C 12,8 C 16,1 C 88 % 1015,7 hPa 0,0 l/m 0,0 km/h (0 Bft) N 357 0 min 0,0 UV-I 0 W/m 11,6 C 13,6 C 1,6 km/h (1 Bft)
04.10.2021 05:50 13,6 C 12,8 C 16,1 C 88 % 1015,8 hPa 0,0 l/m 0,1 km/h (0 Bft) N 357 0 min 0,0 UV-I 0 W/m 11,6 C 13,6 C 1,6 km/h (1 Bft)
04.10.2021 05:52 13,6 C 12,8 C 15,6 C 87 % 1015,9 hPa 0,0 l/m 0,0 km/h (0 Bft) N 357 0 min 0,0 UV-I 0 W/m 11,5 C 13,6 C 0,0 km/h (0 Bft)
04.10.2021 05:54 13,5 C 12,8 C 15,6 C 88 % 1015,9 hPa 0,0 l/m 0,0 km/h (0 Bft) N 357 0 min 0,0 UV-I 0 W/m 11,6 C 13,5 C 0,0 km/h (0 Bft)
04.10.2021 05:56 13,5 C 12,8 C 16,1 C 88 % 1015,9 hPa 0,0 l/m 0,0 km/h (0 Bft) N 357 0 min 0,0 UV-I 0 W/m 11,6 C 13,5 C 0,0 km/h (0 Bft)
04.10.2021 05:58 13,5 C 12,8 C 15,6 C 88 % 1015,8 hPa 0,0 l/m 0,0 km/h (0 Bft) N 357 0 min 0,0 UV-I 0 W/m 11,6 C 13,5 C 0,0 km/h (0 Bft)
04.10.2021 06:00 13,5 C 12,8 C 16,1 C 88 % 1015,8 hPa 0,0 l/m 0,0 km/h (0 Bft) N 357 0 min 0,0 UV-I 0 W/m 11,6 C 13,5 C 0,0 km/h (0 Bft)
04.10.2021 06:02 13,5 C 12,8 C 15,6 C 88 % 1015,9 hPa 0,0 l/m 0,0 km/h (0 Bft) N 357 0 min 0,0 UV-I 0 W/m 11,6 C 13,5 C 0,0 km/h (0 Bft)
04.10.2021 06:04 13,5 C 12,8 C 16,1 C 88 % 1015,8 hPa 0,0 l/m 0,0 km/h (0 Bft) N 356 0 min 0,0 UV-I 0 W/m 11,6 C 13,5 C 0,0 km/h (0 Bft)
04.10.2021 06:06 13,4 C 12,8 C 15,6 C 88 % 1015,7 hPa 0,0 l/m 0,0 km/h (0 Bft) N 357 0 min 0,0 UV-I 0 W/m 11,5 C 13,4 C 0,0 km/h (0 Bft)
04.10.2021 06:08 13,4 C 12,8 C 16,1 C 88 % 1015,8 hPa 0,0 l/m 0,2 km/h (0 Bft) N 357 0 min 0,0 UV-I 0 W/m 11,5 C 13,4 C 1,6 km/h (1 Bft)
04.10.2021 06:10 13,4 C 12,8 C 15,6 C 88 % 1015,8 hPa 0,0 l/m 0,0 km/h (0 Bft) N 357 0 min 0,0 UV-I 0 W/m 11,5 C 13,4 C 0,0 km/h (0 Bft)
04.10.2021 06:12 13,4 C 12,8 C 15,6 C 88 % 1015,9 hPa 0,0 l/m 0,0 km/h (0 Bft) N 357 0 min 0,0 UV-I 0 W/m 11,5 C 13,4 C 0,0 km/h (0 Bft)
04.10.2021 06:14 13,4 C 12,8 C 15,6 C 88 % 1016,1 hPa 0,0 l/m 0,0 km/h (0 Bft) N 357 0 min 0,0 UV-I 0 W/m 11,5 C 13,4 C 0,0 km/h (0 Bft)
04.10.2021 06:16 13,4 C 12,8 C 15,6 C 88 % 1016,0 hPa 0,0 l/m 0,0 km/h (0 Bft) N 357 0 min 0,0 UV-I 0 W/m 11,5 C 13,4 C 0,0 km/h (0 Bft)
04.10.2021 06:18 13,4 C 12,8 C 15,6 C 88 % 1016,1 hPa 0,0 l/m 0,0 km/h (0 Bft) N 357 0 min 0,0 UV-I 0 W/m 11,5 C 13,4 C 0,0 km/h (0 Bft)
04.10.2021 06:20 13,4 C 12,8 C 15,6 C 88 % 1016,1 hPa 0,0 l/m 0,0 km/h (0 Bft) N 357 0 min 0,0 UV-I 0 W/m 11,5 C 13,4 C 0,0 km/h (0 Bft)
04.10.2021 06:22 13,4 C 12,8 C 15,6 C 88 % 1016,1 hPa 0,0 l/m 0,0 km/h (0 Bft) N 357 0 min 0,0 UV-I 0 W/m 11,5 C 13,4 C 0,0 km/h (0 Bft)
04.10.2021 06:24 13,4 C 12,2 C 15,6 C 88 % 1016,2 hPa 0,0 l/m 0,0 km/h (0 Bft) N 357 0 min 0,0 UV-I 0 W/m 11,5 C 13,4 C 0,0 km/h (0 Bft)
04.10.2021 06:26 13,4 C 12,8 C 15,6 C 88 % 1016,2 hPa 0,0 l/m 0,0 km/h (0 Bft) N 357 0 min 0,0 UV-I 0 W/m 11,5 C 13,4 C 0,0 km/h (0 Bft)
04.10.2021 06:28 13,4 C 12,2 C 15,6 C 88 % 1016,2 hPa 0,0 l/m 0,0 km/h (0 Bft) N 357 0 min 0,0 UV-I 0 W/m 11,5 C 13,4 C 0,0 km/h (0 Bft)
04.10.2021 06:30 13,4 C 12,2 C 16,1 C 88 % 1016,2 hPa 0,0 l/m 0,0 km/h (0 Bft) N 356 0 min 0,0 UV-I 0 W/m 11,5 C 13,4 C 0,0 km/h (0 Bft)
04.10.2021 06:32 13,3 C 12,2 C 16,1 C 88 % 1016,1 hPa 0,0 l/m 0,0 km/h (0 Bft) N 357 0 min 0,0 UV-I 0 W/m 11,4 C 13,3 C 0,0 km/h (0 Bft)
04.10.2021 06:34 13,2 C 12,2 C 15,6 C 88 % 1016,1 hPa 0,0 l/m 0,0 km/h (0 Bft) N 357 0 min 0,0 UV-I 0 W/m 11,3 C 13,2 C 0,0 km/h (0 Bft)
04.10.2021 06:36 13,2 C 12,2 C 16,1 C 88 % 1016,1 hPa 0,0 l/m 0,0 km/h (0 Bft) N 357 0 min 0,0 UV-I 0 W/m 11,3 C 13,2 C 0,0 km/h (0 Bft)
04.10.2021 06:38 13,2 C 12,2 C 15,6 C 88 % 1016,1 hPa 0,0 l/m 0,0 km/h (0 Bft) N 357 0 min 0,0 UV-I 0 W/m 11,3 C 13,2 C 0,0 km/h (0 Bft)
04.10.2021 06:40 13,2 C 12,2 C 16,1 C 88 % 1016,2 hPa 0,0 l/m 0,0 km/h (0 Bft) N 357 0 min 0,0 UV-I 0 W/m 11,3 C 13,2 C 0,0 km/h (0 Bft)
04.10.2021 06:42 13,2 C 12,2 C 16,1 C 88 % 1016,3 hPa 0,0 l/m 0,0 km/h (0 Bft) N 357 0 min 0,0 UV-I 0 W/m 11,3 C 13,2 C 0,0 km/h (0 Bft)
04.10.2021 06:44 13,2 C 12,2 C 15,6 C 88 % 1016,2 hPa 0,0 l/m 0,0 km/h (0 Bft) N 357 0 min 0,0 UV-I 0 W/m 11,3 C 13,2 C 0,0 km/h (0 Bft)
04.10.2021 06:46 13,2 C 12,2 C 16,1 C 88 % 1016,3 hPa 0,0 l/m 0,0 km/h (0 Bft) N 357 0 min 0,0 UV-I 0 W/m 11,3 C 13,2 C 0,0 km/h (0 Bft)
04.10.2021 06:48 13,2 C 12,2 C 16,1 C 88 % 1016,3 hPa 0,0 l/m 0,0 km/h (0 Bft) N 357 0 min 0,0 UV-I 0 W/m 11,3 C 13,2 C 1,6 km/h (1 Bft)
04.10.2021 06:50 13,2 C 12,2 C 16,1 C 89 % 1016,3 hPa 0,0 l/m 0,3 km/h (0 Bft) N 357 0 min 0,0 UV-I 0 W/m 11,4 C 13,2 C 1,6 km/h (1 Bft)
04.10.2021 06:52 13,2 C 12,2 C 15,6 C 88 % 1016,4 hPa 0,0 l/m 0,0 km/h (0 Bft) N 357 0 min 0,0 UV-I 0 W/m 11,3 C 13,2 C 0,0 km/h (0 Bft)
04.10.2021 06:54 13,2 C 12,2 C 15,6 C 89 % 1016,4 hPa 0,0 l/m 0,0 km/h (0 Bft) N 357 0 min 0,0 UV-I 0 W/m 11,4 C 13,2 C 0,0 km/h (0 Bft)
04.10.2021 06:56 13,2 C 12,2 C 15,6 C 89 % 1016,4 hPa 0,0 l/m 0,0 km/h (0 Bft) N 357 0 min 0,0 UV-I 0 W/m 11,4 C 13,2 C 0,0 km/h (0 Bft)
04.10.2021 06:58 13,2 C 12,2 C 15,6 C 89 % 1016,5 hPa 0,0 l/m 0,0 km/h (0 Bft) N 357 0 min 0,0 UV-I 0 W/m 11,4 C 13,2 C 0,0 km/h (0 Bft)
04.10.2021 07:00 13,2 C 12,2 C 16,1 C 89 % 1016,6 hPa 0,0 l/m 0,0 km/h (0 Bft) N 357 0 min 0,0 UV-I 0 W/m 11,4 C 13,2 C 0,0 km/h (0 Bft)
04.10.2021 07:02 13,2 C 12,2 C 16,1 C 89 % 1016,6 hPa 0,0 l/m 0,0 km/h (0 Bft) N 357 0 min 0,0 UV-I 0 W/m 11,4 C 13,2 C 0,0 km/h (0 Bft)
04.10.2021 07:04 13,2 C 12,2 C 15,6 C 89 % 1016,7 hPa 0,0 l/m 0,0 km/h (0 Bft) N 357 0 min 0,0 UV-I 0 W/m 11,4 C 13,2 C 0,0 km/h (0 Bft)
04.10.2021 07:06 13,2 C 12,2 C 16,1 C 89 % 1016,7 hPa 0,0 l/m 0,0 km/h (0 Bft) N 357 0 min 0,0 UV-I 0 W/m 11,4 C 13,2 C 0,0 km/h (0 Bft)
04.10.2021 07:08 13,2 C 12,2 C 16,1 C 89 % 1016,8 hPa 0,0 l/m 0,0 km/h (0 Bft) N 357 0 min 0,0 UV-I 0 W/m 11,4 C 13,2 C 0,0 km/h (0 Bft)
04.10.2021 07:10 13,1 C 12,2 C 15,6 C 89 % 1016,8 hPa 0,0 l/m 0,0 km/h (0 Bft) N 357 0 min 0,0 UV-I 0 W/m 11,3 C 13,1 C 0,0 km/h (0 Bft)
04.10.2021 07:12 13,1 C 12,2 C 15,6 C 89 % 1016,8 hPa 0,0 l/m 0,0 km/h (0 Bft) N 357 0 min 0,0 UV-I 0 W/m 11,3 C 13,1 C 0,0 km/h (0 Bft)
04.10.2021 07:14 13,1 C 12,2 C 15,6 C 89 % 1016,8 hPa 0,0 l/m 0,0 km/h (0 Bft) N 357 0 min 0,0 UV-I 0 W/m 11,3 C 13,1 C 0,0 km/h (0 Bft)
04.10.2021 07:16 13,1 C 12,2 C 15,6 C 89 % 1016,9 hPa 0,0 l/m 0,0 km/h (0 Bft) N 357 0 min 0,0 UV-I 0 W/m 11,3 C 13,1 C 0,0 km/h (0 Bft)
04.10.2021 07:18 13,1 C 12,2 C 15,6 C 89 % 1016,8 hPa 0,0 l/m 0,0 km/h (0 Bft) N 357 0 min 0,0 UV-I 0 W/m 11,3 C 13,1 C 0,0 km/h (0 Bft)
04.10.2021 07:20 13,1 C 12,2 C 15,6 C 89 % 1016,8 hPa 0,0 l/m 0,0 km/h (0 Bft) N 357 0 min 0,0 UV-I 0 W/m 11,3 C 13,1 C 0,0 km/h (0 Bft)
04.10.2021 07:22 13,1 C 12,2 C 15,6 C 89 % 1016,9 hPa 0,0 l/m 0,0 km/h (0 Bft) N 357 0 min 0,0 UV-I 0 W/m 11,3 C 13,1 C 0,0 km/h (0 Bft)
04.10.2021 07:24 13,1 C 12,2 C 15,6 C 89 % 1016,9 hPa 0,0 l/m 0,1 km/h (0 Bft) N 357 0 min 0,0 UV-I 0 W/m 11,3 C 13,1 C 1,6 km/h (1 Bft)
04.10.2021 07:26 13,1 C 12,2 C 15,6 C 89 % 1016,9 hPa 0,0 l/m 0,7 km/h (0 Bft) N 357 0 min 0,0 UV-I 0 W/m 11,3 C 13,1 C 1,6 km/h (1 Bft)
04.10.2021 07:28 13,0 C 12,2 C 15,6 C 89 % 1016,9 hPa 0,0 l/m 0,0 km/h (0 Bft) N 356 0 min 0,0 UV-I 5 W/m 11,2 C 13,0 C 1,6 km/h (1 Bft)
04.10.2021 07:30 13,0 C 12,2 C 15,6 C 89 % 1016,9 hPa 0,0 l/m 0,0 km/h (0 Bft) N 357 0 min 0,0 UV-I 5 W/m 11,2 C 13,0 C 0,0 km/h (0 Bft)
04.10.2021 07:32 13,0 C 12,2 C 15,6 C 89 % 1016,9 hPa 0,0 l/m 0,0 km/h (0 Bft) N 357 0 min 0,0 UV-I 5 W/m 11,2 C 13,0 C 0,0 km/h (0 Bft)
04.10.2021 07:34 13,1 C 12,2 C 15,6 C 89 % 1016,9 hPa 0,0 l/m 0,0 km/h (0 Bft) N 357 0 min 0,0 UV-I 5 W/m 11,3 C 13,1 C 0,0 km/h (0 Bft)
04.10.2021 07:36 13,1 C 12,2 C 15,6 C 89 % 1017,0 hPa 0,0 l/m 0,0 km/h (0 Bft) N 357 0 min 0,0 UV-I 5 W/m 11,3 C 13,1 C 0,0 km/h (0 Bft)
04.10.2021 07:38 13,1 C 12,2 C 15,6 C 90 % 1017,1 hPa 0,0 l/m 0,0 km/h (0 Bft) N 357 0 min 0,0 UV-I 5 W/m 11,5 C 13,1 C 0,0 km/h (0 Bft)
04.10.2021 07:40 13,1 C 12,2 C 15,6 C 89 % 1017,1 hPa 0,0 l/m 0,0 km/h (0 Bft) N 357 0 min 0,0 UV-I 0 W/m 11,3 C 13,1 C 0,0 km/h (0 Bft)
04.10.2021 07:42 13,1 C 12,2 C 15,6 C 89 % 1017,1 hPa 0,0 l/m 0,0 km/h (0 Bft) N 356 0 min 0,0 UV-I 0 W/m 11,3 C 13,1 C 0,0 km/h (0 Bft)
04.10.2021 07:44 13,1 C 12,2 C 15,6 C 89 % 1017,1 hPa 0,0 l/m 0,6 km/h (0 Bft) N 357 0 min 0,0 UV-I 5 W/m 11,3 C 13,1 C 1,6 km/h (1 Bft)
04.10.2021 07:46 13,1 C 12,2 C 15,6 C 89 % 1017,2 hPa 0,0 l/m 0,2 km/h (0 Bft) N 357 0 min 0,0 UV-I 5 W/m 11,3 C 13,1 C 1,6 km/h (1 Bft)
04.10.2021 07:48 13,0 C 12,2 C 15,6 C 89 % 1017,1 hPa 0,0 l/m 0,0 km/h (0 Bft) N 357 0 min 0,0 UV-I 7 W/m 11,2 C 13,0 C 0,0 km/h (0 Bft)
04.10.2021 07:50 13,0 C 12,2 C 15,6 C 89 % 1017,1 hPa 0,0 l/m 0,0 km/h (0 Bft) N 357 0 min 0,0 UV-I 7 W/m 11,2 C 13,0 C 0,0 km/h (0 Bft)
04.10.2021 07:52 13,0 C 12,2 C 15,6 C 89 % 1017,2 hPa 0,0 l/m 0,0 km/h (0 Bft) N 357 0 min 0,0 UV-I 7 W/m 11,2 C 13,0 C 0,0 km/h (0 Bft)
04.10.2021 07:54 13,0 C 12,2 C 15,6 C 90 % 1017,2 hPa 0,0 l/m 0,0 km/h (0 Bft) N 357 0 min 0,0 UV-I 7 W/m 11,4 C 13,0 C 0,0 km/h (0 Bft)
04.10.2021 07:56 13,0 C 12,2 C 15,6 C 90 % 1017,2 hPa 0,0 l/m 0,0 km/h (0 Bft) N 357 0 min 0,0 UV-I 7 W/m 11,4 C 13,0 C 1,6 km/h (1 Bft)
04.10.2021 07:58 13,0 C 12,2 C 15,6 C 90 % 1017,2 hPa 0,0 l/m 0,0 km/h (0 Bft) N 357 0 min 0,0 UV-I 9 W/m 11,4 C 13,0 C 1,6 km/h (1 Bft)
04.10.2021 08:00 13,1 C 12,2 C 15,6 C 90 % 1017,1 hPa 0,0 l/m 0,0 km/h (0 Bft) N 356 0 min 0,0 UV-I 11 W/m 11,5 C 13,1 C 0,0 km/h (0 Bft)
04.10.2021 08:02 13,1 C 12,2 C 15,6 C 90 % 1017,0 hPa 0,0 l/m 0,0 km/h (0 Bft) N 357 0 min 0,0 UV-I 12 W/m 11,5 C 13,1 C 0,0 km/h (0 Bft)
04.10.2021 08:04 13,1 C 12,2 C 15,6 C 90 % 1017,0 hPa 0,0 l/m 0,0 km/h (0 Bft) N 357 0 min 0,0 UV-I 12 W/m 11,5 C 13,1 C 0,0 km/h (0 Bft)
04.10.2021 08:06 13,1 C 12,2 C 15,6 C 90 % 1017,0 hPa 0,0 l/m 0,0 km/h (0 Bft) N 357 0 min 0,0 UV-I 14 W/m 11,5 C 13,1 C 0,0 km/h (0 Bft)
04.10.2021 08:08 13,1 C 12,8 C 15,6 C 90 % 1017,0 hPa 0,0 l/m 0,0 km/h (0 Bft) N 357 0 min 0,0 UV-I 18 W/m 11,5 C 13,1 C 0,0 km/h (0 Bft)
04.10.2021 08:10 13,0 C 12,8 C 15,6 C 90 % 1017,0 hPa 0,0 l/m 0,0 km/h (0 Bft) N 357 0 min 0,0 UV-I 21 W/m 11,4 C 13,0 C 0,0 km/h (0 Bft)
04.10.2021 08:12 13,1 C 12,8 C 15,6 C 90 % 1017,1 hPa 0,0 l/m 0,0 km/h (0 Bft) N 357 0 min 0,0 UV-I 25 W/m 11,5 C 13,1 C 0,0 km/h (0 Bft)
04.10.2021 08:14 13,1 C 12,8 C 15,6 C 90 % 1017,2 hPa 0,0 l/m 0,1 km/h (0 Bft) N 357 0 min 0,0 UV-I 30 W/m 11,5 C 13,1 C 1,6 km/h (1 Bft)
04.10.2021 08:16 13,1 C 12,8 C 15,6 C 90 % 1017,2 hPa 0,0 l/m 0,0 km/h (0 Bft) N 357 0 min 0,0 UV-I 35 W/m 11,5 C 13,1 C 0,0 km/h (0 Bft)
04.10.2021 08:18 13,1 C 12,8 C 15,6 C 90 % 1017,3 hPa 0,0 l/m 0,0 km/h (0 Bft) N 357 0 min 0,0 UV-I 40 W/m 11,5 C 13,1 C 0,0 km/h (0 Bft)
04.10.2021 08:20 13,1 C 12,8 C 15,6 C 90 % 1017,3 hPa 0,0 l/m 0,0 km/h (0 Bft) N 357 0 min 0,0 UV-I 44 W/m 11,5 C 13,1 C 0,0 km/h (0 Bft)
04.10.2021 08:22 13,2 C 12,8 C 15,6 C 90 % 1017,4 hPa 0,0 l/m 0,0 km/h (0 Bft) N 356 0 min 0,0 UV-I 46 W/m 11,6 C 13,2 C 0,0 km/h (0 Bft)
04.10.2021 08:24 13,2 C 12,8 C 15,6 C 90 % 1017,3 hPa 0,0 l/m 0,0 km/h (0 Bft) N 357 0 min 0,0 UV-I 49 W/m 11,6 C 13,2 C 0,0 km/h (0 Bft)
04.10.2021 08:26 13,2 C 12,8 C 15,6 C 90 % 1017,4 hPa 0,0 l/m 0,0 km/h (0 Bft) N 357 0 min 0,0 UV-I 53 W/m 11,6 C 13,2 C 0,0 km/h (0 Bft)
04.10.2021 08:28 13,3 C 13,3 C 15,6 C 90 % 1017,4 hPa 0,0 l/m 0,0 km/h (0 Bft) N 357 0 min 0,0 UV-I 63 W/m 11,7 C 13,3 C 0,0 km/h (0 Bft)
04.10.2021 08:30 13,3 C 13,3 C 15,6 C 90 % 1017,3 hPa 0,0 l/m 0,0 km/h (0 Bft) N 357 0 min 0,0 UV-I 76 W/m 11,7 C 13,3 C 0,0 km/h (0 Bft)
04.10.2021 08:32 13,3 C 13,3 C 15,6 C 90 % 1017,3 hPa 0,0 l/m 0,0 km/h (0 Bft) N 357 0 min 0,0 UV-I 77 W/m 11,7 C 13,3 C 0,0 km/h (0 Bft)
04.10.2021 08:34 13,3 C 13,3 C 15,6 C 90 % 1017,5 hPa 0,0 l/m 0,0 km/h (0 Bft) N 357 0 min 0,0 UV-I 69 W/m 11,7 C 13,3 C 0,0 km/h (0 Bft)
04.10.2021 08:36 13,3 C 13,3 C 15,6 C 90 % 1017,5 hPa 0,0 l/m 0,0 km/h (0 Bft) N 357 0 min 0,0 UV-I 58 W/m 11,7 C 13,3 C 0,0 km/h (0 Bft)
04.10.2021 08:38 13,4 C 13,3 C 15,6 C 90 % 1017,6 hPa 0,0 l/m 0,1 km/h (0 Bft) N 357 0 min 0,0 UV-I 54 W/m 11,8 C 13,4 C 1,6 km/h (1 Bft)
04.10.2021 08:40 13,4 C 13,3 C 15,6 C 90 % 1017,6 hPa 0,0 l/m 0,0 km/h (0 Bft) N 357 0 min 0,0 UV-I 47 W/m 11,8 C 13,4 C 0,0 km/h (0 Bft)
04.10.2021 08:42 13,4 C 13,3 C 15,6 C 90 % 1017,6 hPa 0,0 l/m 0,0 km/h (0 Bft) N 357 0 min 0,0 UV-I 44 W/m 11,8 C 13,4 C 0,0 km/h (0 Bft)
04.10.2021 08:44 13,4 C 13,3 C 15,6 C 90 % 1017,6 hPa 0,0 l/m 0,0 km/h (0 Bft) N 357 0 min 0,0 UV-I 44 W/m 11,8 C 13,4 C 0,0 km/h (0 Bft)
04.10.2021 08:46 13,4 C 13,3 C 15,6 C 89 % 1017,7 hPa 0,0 l/m 0,0 km/h (0 Bft) N 357 0 min 0,0 UV-I 39 W/m 11,6 C 13,4 C 0,0 km/h (0 Bft)
04.10.2021 08:48 13,4 C 13,3 C 15,6 C 89 % 1017,6 hPa 0,0 l/m 0,0 km/h (0 Bft) N 357 0 min 0,0 UV-I 32 W/m 11,6 C 13,4 C 0,0 km/h (0 Bft)
04.10.2021 08:50 13,4 C 13,3 C 15,6 C 89 % 1017,7 hPa 0,0 l/m 0,0 km/h (0 Bft) N 357 0 min 0,0 UV-I 28 W/m 11,6 C 13,4 C 0,0 km/h (0 Bft)
04.10.2021 08:52 13,4 C 13,3 C 15,6 C 89 % 1017,7 hPa 0,0 l/m 0,6 km/h (0 Bft) N 357 0 min 0,0 UV-I 33 W/m 11,6 C 13,4 C 3,2 km/h (1 Bft)
04.10.2021 08:54 13,5 C 13,3 C 15,6 C 90 % 1017,7 hPa 0,0 l/m 0,8 km/h (0 Bft) N 357 0 min 0,0 UV-I 40 W/m 11,9 C 13,5 C 3,2 km/h (1 Bft)
04.10.2021 08:56 13,6 C 13,3 C 15,6 C 90 % 1017,7 hPa 0,0 l/m 0,0 km/h (0 Bft) N 357 0 min 0,0 UV-I 42 W/m 12,0 C 13,6 C 1,6 km/h (1 Bft)
04.10.2021 08:58 13,6 C 13,3 C 15,6 C 90 % 1017,7 hPa 0,0 l/m 0,1 km/h (0 Bft) N 357 0 min 0,0 UV-I 37 W/m 12,0 C 13,6 C 1,6 km/h (1 Bft)
04.10.2021 09:00 13,6 C 13,3 C 15,6 C 90 % 1017,9 hPa 0,0 l/m 0,7 km/h (0 Bft) N 357 0 min 0,0 UV-I 30 W/m 12,0 C 13,6 C 1,6 km/h (1 Bft)
04.10.2021 09:02 13,6 C 13,3 C 15,6 C 90 % 1018,0 hPa 0,0 l/m 0,2 km/h (0 Bft) N 357 0 min 0,0 UV-I 28 W/m 12,0 C 13,6 C 1,6 km/h (1 Bft)
04.10.2021 09:04 13,6 C 13,3 C 15,6 C 89 % 1018,0 hPa 0,0 l/m 0,4 km/h (0 Bft) N 357 0 min 0,0 UV-I 30 W/m 11,8 C 13,6 C 1,6 km/h (1 Bft)
04.10.2021 09:06 13,6 C 13,3 C 15,6 C 89 % 1018,0 hPa 0,0 l/m 0,0 km/h (0 Bft) N 357 0 min 0,0 UV-I 33 W/m 11,8 C 13,6 C 1,6 km/h (1 Bft)
04.10.2021 09:08 13,6 C 13,3 C 15,6 C 89 % 1017,9 hPa 0,0 l/m 1,3 km/h (1 Bft) N 357 0 min 0,0 UV-I 33 W/m 11,8 C 13,6 C 3,2 km/h (1 Bft)
04.10.2021 09:10 13,7 C 13,3 C 15,6 C 89 % 1018,0 hPa 0,0 l/m 1,7 km/h (1 Bft) N 356 0 min 0,0 UV-I 33 W/m 11,9 C 13,7 C 3,2 km/h (1 Bft)
04.10.2021 09:12 13,6 C 13,3 C 15,6 C 89 % 1018,0 hPa 0,0 l/m 0,9 km/h (0 Bft) N 357 0 min 0,0 UV-I 32 W/m 11,8 C 13,6 C 3,2 km/h (1 Bft)
04.10.2021 09:14 13,7 C 13,3 C 15,6 C 90 % 1018,0 hPa 0,0 l/m 0,0 km/h (0 Bft) N 356 0 min 0,0 UV-I 32 W/m 12,1 C 13,7 C 0,0 km/h (0 Bft)
04.10.2021 09:16 13,7 C 13,3 C 15,6 C 89 % 1018,0 hPa 0,0 l/m 0,8 km/h (0 Bft) N 356 0 min 0,0 UV-I 32 W/m 11,9 C 13,7 C 1,6 km/h (1 Bft)
04.10.2021 09:18 13,7 C 13,3 C 15,6 C 89 % 1018,0 hPa 0,0 l/m 0,7 km/h (0 Bft) N 356 0 min 0,0 UV-I 30 W/m 11,9 C 13,7 C 3,2 km/h (1 Bft)
04.10.2021 09:20 13,7 C 13,3 C 15,6 C 89 % 1018,1 hPa 0,0 l/m 0,0 km/h (0 Bft) N 356 0 min 0,0 UV-I 28 W/m 11,9 C 13,7 C 0,0 km/h (0 Bft)
04.10.2021 09:22 13,7 C 13,3 C 15,6 C 89 % 1018,2 hPa 0,0 l/m 0,0 km/h (0 Bft) N 356 0 min 0,0 UV-I 28 W/m 11,9 C 13,7 C 0,0 km/h (0 Bft)
04.10.2021 09:24 13,7 C 13,3 C 15,6 C 89 % 1018,3 hPa 0,0 l/m 1,5 km/h (1 Bft) N 354 0 min 0,0 UV-I 32 W/m 11,9 C 13,7 C 3,2 km/h (1 Bft)
04.10.2021 09:26 13,7 C 13,3 C 15,6 C 89 % 1018,3 hPa 0,0 l/m 1,6 km/h (1 Bft) N 354 0 min 0,0 UV-I 32 W/m 11,9 C 13,7 C 3,2 km/h (1 Bft)
04.10.2021 09:28 13,7 C 13,3 C 15,6 C 89 % 1018,3 hPa 0,0 l/m 2,2 km/h (1 Bft) N 354 0 min 0,0 UV-I 30 W/m 11,9 C 13,7 C 3,2 km/h (1 Bft)
04.10.2021 09:30 13,7 C 13,3 C 15,6 C 89 % 1018,3 hPa 0,0 l/m 1,9 km/h (1 Bft) W 281 0 min 0,0 UV-I 26 W/m 11,9 C 13,7 C 4,8 km/h (1 Bft)
04.10.2021 09:32 13,7 C 13,3 C 15,6 C 89 % 1018,3 hPa 0,0 l/m 1,7 km/h (1 Bft) W 281 0 min 0,0 UV-I 25 W/m 11,9 C 13,7 C 3,2 km/h (1 Bft)
04.10.2021 09:34 13,7 C 13,3 C 15,6 C 89 % 1018,3 hPa 0,0 l/m 2,4 km/h (1 Bft) W-SW 240 0 min 0,0 UV-I 23 W/m 11,9 C 13,7 C 4,8 km/h (1 Bft)
04.10.2021 09:36 13,6 C 13,3 C 15,6 C 89 % 1018,4 hPa 0,0 l/m 2,1 km/h (1 Bft) W-SW 240 0 min 0,0 UV-I 23 W/m 11,8 C 13,6 C 3,2 km/h (1 Bft)
04.10.2021 09:38 13,6 C 12,8 C 15,6 C 89 % 1018,4 hPa 0,0 l/m 0,8 km/h (0 Bft) W-SW 240 0 min 0,0 UV-I 23 W/m 11,8 C 13,6 C 3,2 km/h (1 Bft)
04.10.2021 09:40 13,6 C 12,8 C 15,6 C 88 % 1018,4 hPa 0,0 l/m 0,3 km/h (0 Bft) W-SW 240 0 min 0,0 UV-I 26 W/m 11,6 C 13,6 C 1,6 km/h (1 Bft)
04.10.2021 09:42 13,6 C 13,3 C 15,6 C 88 % 1018,4 hPa 0,0 l/m 0,3 km/h (0 Bft) W-SW 240 0 min 0,0 UV-I 32 W/m 11,6 C 13,6 C 1,6 km/h (1 Bft)
04.10.2021 09:44 13,6 C 13,3 C 15,6 C 89 % 1018,4 hPa 0,0 l/m 0,3 km/h (0 Bft) W-SW 240 0 min 0,0 UV-I 32 W/m 11,8 C 13,6 C 1,6 km/h (1 Bft)
04.10.2021 09:46 13,7 C 13,3 C 15,6 C 88 % 1018,4 hPa 0,0 l/m 1,3 km/h (1 Bft) W-SW 240 0 min 0,0 UV-I 30 W/m 11,7 C 13,7 C 3,2 km/h (1 Bft)
04.10.2021 09:48 13,6 C 13,3 C 15,6 C 88 % 1018,5 hPa 0,0 l/m 2,1 km/h (1 Bft) W-SW 240 0 min 0,0 UV-I 32 W/m 11,6 C 13,6 C 4,8 km/h (1 Bft)
04.10.2021 09:50 13,6 C 13,3 C 15,6 C 88 % 1018,5 hPa 0,0 l/m 1,6 km/h (1 Bft) W-SW 240 0 min 0,0 UV-I 37 W/m 11,6 C 13,6 C 4,8 km/h (1 Bft)
04.10.2021 09:52 13,7 C 13,3 C 15,6 C 88 % 1018,5 hPa 0,0 l/m 0,7 km/h (0 Bft) W-SW 240 0 min 0,0 UV-I 39 W/m 11,7 C 13,7 C 1,6 km/h (1 Bft)
04.10.2021 09:54 13,7 C 13,3 C 15,6 C 88 % 1018,5 hPa 0,0 l/m 0,0 km/h (0 Bft) W-SW 240 0 min 0,0 UV-I 33 W/m 11,7 C 13,7 C 0,0 km/h (0 Bft)
04.10.2021 09:56 13,7 C 13,3 C 15,6 C 88 % 1018,5 hPa 0,0 l/m 0,3 km/h (0 Bft) W-SW 240 0 min 0,0 UV-I 30 W/m 11,7 C 13,7 C 3,2 km/h (1 Bft)
04.10.2021 09:58 13,7 C 13,3 C 15,6 C 88 % 1018,5 hPa 0,0 l/m 1,0 km/h (0 Bft) W-SW 240 0 min 0,0 UV-I 30 W/m 11,7 C 13,7 C 3,2 km/h (1 Bft)
04.10.2021 10:00 13,7 C 13,3 C 15,6 C 88 % 1018,6 hPa 0,0 l/m 1,5 km/h (1 Bft) W-SW 240 0 min 0,0 UV-I 33 W/m 11,7 C 13,7 C 3,2 km/h (1 Bft)
04.10.2021 10:02 13,7 C 13,3 C 15,6 C 88 % 1018,6 hPa 0,0 l/m 0,7 km/h (0 Bft) W-SW 240 0 min 0,0 UV-I 37 W/m 11,7 C 13,7 C 1,6 km/h (1 Bft)
04.10.2021 10:04 13,7 C 13,3 C 15,6 C 88 % 1018,6 hPa 0,0 l/m 0,4 km/h (0 Bft) W-SW 240 0 min 0,0 UV-I 39 W/m 11,7 C 13,7 C 1,6 km/h (1 Bft)
04.10.2021 10:06 13,7 C 13,3 C 15,6 C 88 % 1018,6 hPa 0,0 l/m 0,0 km/h (0 Bft) W-SW 240 0 min 0,0 UV-I 35 W/m 11,7 C 13,7 C 1,6 km/h (1 Bft)
04.10.2021 10:08 13,7 C 13,3 C 15,6 C 88 % 1018,7 hPa 0,0 l/m 0,0 km/h (0 Bft) W-SW 240 0 min 0,0 UV-I 33 W/m 11,7 C 13,7 C 1,6 km/h (1 Bft)
04.10.2021 10:10 13,7 C 13,3 C 15,6 C 88 % 1018,7 hPa 0,0 l/m 0,6 km/h (0 Bft) W-SW 240 0 min 0,0 UV-I 33 W/m 11,7 C 13,7 C 3,2 km/h (1 Bft)
04.10.2021 10:12 13,7 C 13,3 C 15,6 C 88 % 1018,7 hPa 0,0 l/m 1,0 km/h (0 Bft) W-SW 240 0 min 0,0 UV-I 33 W/m 11,7 C 13,7 C 3,2 km/h (1 Bft)
04.10.2021 10:14 13,7 C 13,3 C 15,6 C 88 % 1018,8 hPa 0,0 l/m 1,1 km/h (1 Bft) W-SW 240 0 min 0,0 UV-I 33 W/m 11,7 C 13,7 C 3,2 km/h (1 Bft)
04.10.2021 10:16 13,7 C 13,3 C 15,6 C 88 % 1018,8 hPa 0,0 l/m 1,3 km/h (1 Bft) W-SW 240 0 min 0,0 UV-I 33 W/m 11,7 C 13,7 C 3,2 km/h (1 Bft)
04.10.2021 10:18 13,7 C 13,3 C 15,6 C 88 % 1018,8 hPa 0,0 l/m 0,0 km/h (0 Bft) W-SW 240 0 min 0,0 UV-I 39 W/m 11,7 C 13,7 C 0,0 km/h (0 Bft)
04.10.2021 10:20 13,7 C 13,3 C 15,6 C 88 % 1018,7 hPa 0,0 l/m 0,0 km/h (0 Bft) W-SW 240 0 min 0,0 UV-I 39 W/m 11,7 C 13,7 C 0,0 km/h (0 Bft)
04.10.2021 10:22 13,8 C 13,3 C 15,6 C 88 % 1018,8 hPa 0,0 l/m 0,0 km/h (0 Bft) W-SW 240 0 min 0,0 UV-I 35 W/m 11,8 C 13,8 C 0,0 km/h (0 Bft)
04.10.2021 10:24 13,8 C 13,3 C 15,6 C 88 % 1018,8 hPa 0,0 l/m 0,0 km/h (0 Bft) W-SW 240 0 min 0,0 UV-I 37 W/m 11,8 C 13,8 C 0,0 km/h (0 Bft)
04.10.2021 10:26 13,8 C 13,3 C 15,6 C 88 % 1018,9 hPa 0,0 l/m 0,0 km/h (0 Bft) W-SW 240 0 min 0,0 UV-I 42 W/m 11,8 C 13,8 C 0,0 km/h (0 Bft)
04.10.2021 10:28 13,9 C 13,9 C 15,6 C 88 % 1018,9 hPa 0,0 l/m 0,5 km/h (0 Bft) W-SW 240 0 min 0,0 UV-I 42 W/m 11,9 C 13,9 C 1,6 km/h (1 Bft)
04.10.2021 10:30 13,8 C 13,3 C 15,6 C 88 % 1018,9 hPa 0,0 l/m 0,2 km/h (0 Bft) W-SW 240 0 min 0,0 UV-I 40 W/m 11,8 C 13,8 C 1,6 km/h (1 Bft)
04.10.2021 10:32 13,9 C 13,3 C 15,6 C 88 % 1018,9 hPa 0,0 l/m 0,3 km/h (0 Bft) W-SW 240 0 min 0,0 UV-I 42 W/m 11,9 C 13,9 C 1,6 km/h (1 Bft)
04.10.2021 10:34 13,9 C 13,3 C 15,6 C 88 % 1018,9 hPa 0,0 l/m 0,0 km/h (0 Bft) W-SW 240 0 min 0,0 UV-I 47 W/m 11,9 C 13,9 C 0,0 km/h (0 Bft)
04.10.2021 10:36 13,9 C 13,9 C 15,6 C 88 % 1018,8 hPa 0,0 l/m 0,0 km/h (0 Bft) W-SW 240 0 min 0,0 UV-I 46 W/m 11,9 C 13,9 C 0,0 km/h (0 Bft)
04.10.2021 10:38 13,9 C 13,9 C 15,6 C 88 % 1018,9 hPa 0,0 l/m 0,0 km/h (0 Bft) W-SW 240 0 min 0,0 UV-I 42 W/m 11,9 C 13,9 C 0,0 km/h (0 Bft)
04.10.2021 10:40 13,9 C 13,3 C 15,6 C 88 % 1018,9 hPa 0,0 l/m 0,0 km/h (0 Bft) W-SW 240 0 min 0,0 UV-I 37 W/m 11,9 C 13,9 C 1,6 km/h (1 Bft)
04.10.2021 10:42 13,9 C 13,3 C 15,6 C 88 % 1018,8 hPa 0,0 l/m 0,0 km/h (0 Bft) W-SW 240 0 min 0,0 UV-I 33 W/m 11,9 C 13,9 C 0,0 km/h (0 Bft)
04.10.2021 10:44 13,9 C 13,9 C 15,6 C 88 % 1018,9 hPa 0,0 l/m 0,2 km/h (0 Bft) W-SW 240 0 min 0,0 UV-I 32 W/m 11,9 C 13,9 C 1,6 km/h (1 Bft)
04.10.2021 10:46 13,9 C 13,3 C 15,6 C 88 % 1019,0 hPa 0,0 l/m 0,3 km/h (0 Bft) W-SW 240 0 min 0,0 UV-I 32 W/m 11,9 C 13,9 C 1,6 km/h (1 Bft)
04.10.2021 10:48 13,9 C 13,3 C 15,6 C 88 % 1019,2 hPa 0,0 l/m 2,0 km/h (1 Bft) W-SW 258 0 min 0,0 UV-I 30 W/m 11,9 C 13,9 C 4,8 km/h (1 Bft)
04.10.2021 10:50 13,9 C 13,3 C 15,6 C 88 % 1019,3 hPa 0,0 l/m 3,2 km/h (1 Bft) W 279 0 min 0,0 UV-I 32 W/m 11,9 C 13,9 C 6,4 km/h (2 Bft)
04.10.2021 10:52 13,9 C 13,3 C 15,6 C 88 % 1019,4 hPa 0,0 l/m 2,8 km/h (1 Bft) W 279 0 min 0,0 UV-I 37 W/m 11,9 C 13,9 C 4,8 km/h (1 Bft)
04.10.2021 10:54 13,9 C 13,3 C 15,6 C 88 % 1019,4 hPa 0,0 l/m 0,8 km/h (0 Bft) W 279 0 min 0,0 UV-I 40 W/m 11,9 C 13,9 C 3,2 km/h (1 Bft)
04.10.2021 10:56 13,9 C 13,3 C 15,6 C 88 % 1019,3 hPa 0,0 l/m 1,9 km/h (1 Bft) W 279 0 min 0,0 UV-I 42 W/m 11,9 C 13,9 C 3,2 km/h (1 Bft)
04.10.2021 10:58 13,9 C 13,3 C 15,6 C 88 % 1019,2 hPa 0,0 l/m 1,5 km/h (1 Bft) W 279 0 min 0,0 UV-I 46 W/m 11,9 C 13,9 C 4,8 km/h (1 Bft)
04.10.2021 11:00 13,9 C 13,3 C 15,6 C 88 % 1019,2 hPa 0,0 l/m 1,6 km/h (1 Bft) W 279 0 min 0,0 UV-I 44 W/m 11,9 C 13,9 C 3,2 km/h (1 Bft)
04.10.2021 11:02 13,9 C 13,3 C 15,6 C 88 % 1019,2 hPa 0,0 l/m 1,5 km/h (1 Bft) W 279 0 min 0,0 UV-I 42 W/m 11,9 C 13,9 C 3,2 km/h (1 Bft)
04.10.2021 11:04 13,9 C 13,3 C 15,6 C 88 % 1019,1 hPa 0,0 l/m 0,5 km/h (0 Bft) W 279 0 min 0,5 UV-I 56 W/m 11,9 C 13,9 C 1,6 km/h (1 Bft)
04.10.2021 11:06 13,9 C 13,9 C 15,6 C 88 % 1019,1 hPa 0,0 l/m 0,3 km/h (0 Bft) W 279 0 min 0,5 UV-I 67 W/m 11,9 C 13,9 C 1,6 km/h (1 Bft)
04.10.2021 11:08 13,8 C 13,9 C 15,6 C 88 % 1019,1 hPa 0,0 l/m 0,0 km/h (0 Bft) W 279 0 min 0,5 UV-I 67 W/m 11,8 C 13,8 C 0,0 km/h (0 Bft)
04.10.2021 11:10 13,9 C 13,9 C 15,6 C 88 % 1019,1 hPa 0,0 l/m 0,0 km/h (0 Bft) W 279 0 min 0,6 UV-I 76 W/m 11,9 C 13,9 C 0,0 km/h (0 Bft)
04.10.2021 11:12 13,9 C 14,4 C 15,6 C 88 % 1019,0 hPa 0,0 l/m 0,0 km/h (0 Bft) W 279 0 min 0,8 UV-I 100 W/m 11,9 C 13,9 C 0,0 km/h (0 Bft)
04.10.2021 11:14 14,0 C 14,4 C 15,6 C 88 % 1018,9 hPa 0,0 l/m 0,0 km/h (0 Bft) W 279 0 min 0,9 UV-I 125 W/m 12,0 C 14,0 C 0,0 km/h (0 Bft)
04.10.2021 11:16 14,1 C 14,4 C 15,6 C 88 % 1018,9 hPa 0,0 l/m 0,1 km/h (0 Bft) W 279 0 min 0,8 UV-I 114 W/m 12,1 C 14,1 C 1,6 km/h (1 Bft)
04.10.2021 11:18 14,1 C 15,0 C 15,6 C 88 % 1018,8 hPa 0,0 l/m 0,0 km/h (0 Bft) W 279 0 min 0,8 UV-I 102 W/m 12,1 C 14,1 C 1,6 km/h (1 Bft)
04.10.2021 11:20 14,1 C 14,4 C 15,6 C 88 % 1018,9 hPa 0,0 l/m 0,3 km/h (0 Bft) W 279 0 min 0,7 UV-I 90 W/m 12,1 C 14,1 C 1,6 km/h (1 Bft)
04.10.2021 11:22 14,1 C 14,4 C 15,6 C 88 % 1019,0 hPa 0,0 l/m 0,7 km/h (0 Bft) W 279 0 min 0,7 UV-I 90 W/m 12,1 C 14,1 C 1,6 km/h (1 Bft)
04.10.2021 11:24 14,2 C 14,4 C 15,6 C 88 % 1019,1 hPa 0,0 l/m 0,6 km/h (0 Bft) W 279 0 min 0,7 UV-I 95 W/m 12,2 C 14,2 C 1,6 km/h (1 Bft)
04.10.2021 11:26 14,2 C 14,4 C 15,6 C 87 % 1019,1 hPa 0,0 l/m 1,7 km/h (1 Bft) W 278 0 min 0,7 UV-I 90 W/m 12,1 C 14,2 C 3,2 km/h (1 Bft)
04.10.2021 11:28 14,2 C 14,4 C 15,6 C 87 % 1019,2 hPa 0,0 l/m 0,8 km/h (0 Bft) W 279 0 min 0,7 UV-I 83 W/m 12,1 C 14,2 C 1,6 km/h (1 Bft)
04.10.2021 11:30 14,2 C 14,4 C 15,6 C 87 % 1019,1 hPa 0,0 l/m 1,0 km/h (0 Bft) W 279 0 min 0,7 UV-I 91 W/m 12,1 C 14,2 C 1,6 km/h (1 Bft)
04.10.2021 11:32 14,2 C 15,0 C 15,6 C 87 % 1019,1 hPa 0,0 l/m 0,6 km/h (0 Bft) W 279 0 min 0,9 UV-I 127 W/m 12,1 C 14,2 C 1,6 km/h (1 Bft)
04.10.2021 11:34 14,2 C 15,0 C 15,6 C 86 % 1019,0 hPa 0,0 l/m 1,5 km/h (1 Bft) W 279 0 min 1,0 UV-I 141 W/m 11,9 C 14,2 C 3,2 km/h (1 Bft)
04.10.2021 11:36 14,2 C 15,0 C 15,6 C 86 % 1019,1 hPa 0,0 l/m 0,4 km/h (0 Bft) W 279 0 min 0,9 UV-I 135 W/m 11,9 C 14,2 C 1,6 km/h (1 Bft)
04.10.2021 11:38 14,3 C 15,0 C 15,6 C 85 % 1019,1 hPa 0,0 l/m 0,7 km/h (0 Bft) W 279 0 min 0,9 UV-I 116 W/m 11,8 C 14,3 C 3,2 km/h (1 Bft)
04.10.2021 11:40 14,4 C 15,0 C 15,6 C 85 % 1019,2 hPa 0,0 l/m 0,0 km/h (0 Bft) W 279 0 min 0,8 UV-I 105 W/m 11,9 C 14,4 C 1,6 km/h (1 Bft)
04.10.2021 11:42 14,4 C 15,0 C 15,6 C 85 % 1019,2 hPa 0,0 l/m 1,3 km/h (1 Bft) W 279 0 min 0,7 UV-I 98 W/m 11,9 C 14,4 C 3,2 km/h (1 Bft)
04.10.2021 11:44 14,4 C 15,0 C 15,6 C 85 % 1019,2 hPa 0,0 l/m 1,4 km/h (1 Bft) W 279 0 min 0,7 UV-I 91 W/m 11,9 C 14,4 C 3,2 km/h (1 Bft)
04.10.2021 11:46 14,4 C 15,0 C 15,6 C 85 % 1019,2 hPa 0,0 l/m 2,3 km/h (1 Bft) W 279 0 min 0,7 UV-I 88 W/m 11,9 C 14,4 C 3,2 km/h (1 Bft)
04.10.2021 11:48 14,4 C 15,0 C 15,6 C 85 % 1019,2 hPa 0,0 l/m 0,9 km/h (0 Bft) W 278 0 min 0,8 UV-I 98 W/m 11,9 C 14,4 C 3,2 km/h (1 Bft)
04.10.2021 11:50 14,4 C 15,0 C 15,6 C 84 % 1019,2 hPa 0,0 l/m 0,7 km/h (0 Bft) W 279 0 min 0,8 UV-I 84 W/m 11,7 C 14,4 C 1,6 km/h (1 Bft)
04.10.2021 11:52 14,4 C 15,0 C 15,6 C 84 % 1019,2 hPa 0,0 l/m 1,2 km/h (1 Bft) W 279 0 min 0,6 UV-I 72 W/m 11,7 C 14,4 C 1,6 km/h (1 Bft)
04.10.2021 11:54 14,4 C 14,4 C 15,6 C 83 % 1019,2 hPa 0,0 l/m 0,8 km/h (0 Bft) W 279 0 min 0,6 UV-I 72 W/m 11,5 C 14,4 C 3,2 km/h (1 Bft)
04.10.2021 11:56 14,4 C 14,4 C 15,6 C 83 % 1019,2 hPa 0,0 l/m 0,0 km/h (0 Bft) W 279 0 min 0,7 UV-I 83 W/m 11,5 C 14,4 C 0,0 km/h (0 Bft)
04.10.2021 11:58 14,4 C 15,0 C 15,6 C 83 % 1019,2 hPa 0,0 l/m 1,0 km/h (0 Bft) W 279 0 min 0,7 UV-I 93 W/m 11,5 C 14,4 C 3,2 km/h (1 Bft)
04.10.2021 12:00 14,5 C 15,0 C 15,6 C 83 % 1019,2 hPa 0,0 l/m 3,3 km/h (1 Bft) W 262 0 min 0,7 UV-I 88 W/m 11,6 C 14,5 C 6,4 km/h (2 Bft)
04.10.2021 12:02 14,5 C 15,0 C 15,6 C 83 % 1019,3 hPa 0,0 l/m 1,8 km/h (1 Bft) W 262 0 min 0,7 UV-I 86 W/m 11,6 C 14,5 C 4,8 km/h (1 Bft)
04.10.2021 12:04 14,5 C 15,0 C 15,6 C 83 % 1019,3 hPa 0,0 l/m 1,9 km/h (1 Bft) W 262 0 min 0,7 UV-I 91 W/m 11,6 C 14,5 C 3,2 km/h (1 Bft)
04.10.2021 12:06 14,6 C 15,0 C 15,6 C 84 % 1019,3 hPa 0,0 l/m 1,8 km/h (1 Bft) W 262 0 min 0,7 UV-I 93 W/m 11,9 C 14,6 C 4,8 km/h (1 Bft)
04.10.2021 12:08 14,4 C 14,4 C 15,6 C 83 % 1019,3 hPa 0,0 l/m 3,2 km/h (1 Bft) W 262 0 min 0,6 UV-I 79 W/m 11,5 C 14,4 C 4,8 km/h (1 Bft)
04.10.2021 12:10 14,4 C 14,4 C 15,6 C 83 % 1019,4 hPa 0,0 l/m 1,6 km/h (1 Bft) W 262 0 min 0,6 UV-I 72 W/m 11,5 C 14,4 C 3,2 km/h (1 Bft)
04.10.2021 12:12 14,5 C 14,4 C 15,6 C 83 % 1019,3 hPa 0,0 l/m 0,4 km/h (0 Bft) W 262 0 min 0,6 UV-I 74 W/m 11,6 C 14,5 C 1,6 km/h (1 Bft)
04.10.2021 12:14 14,6 C 14,4 C 15,6 C 83 % 1019,3 hPa 0,0 l/m 1,2 km/h (1 Bft) W 262 0 min 0,6 UV-I 74 W/m 11,7 C 14,6 C 3,2 km/h (1 Bft)
04.10.2021 12:16 14,6 C 14,4 C 15,6 C 83 % 1019,3 hPa 0,0 l/m 1,0 km/h (0 Bft) W 262 0 min 0,6 UV-I 77 W/m 11,7 C 14,6 C 3,2 km/h (1 Bft)
04.10.2021 12:18 14,6 C 15,0 C 15,6 C 83 % 1019,3 hPa 0,0 l/m 1,3 km/h (1 Bft) W 262 0 min 0,6 UV-I 77 W/m 11,7 C 14,6 C 3,2 km/h (1 Bft)
04.10.2021 12:20 14,6 C 14,4 C 15,6 C 83 % 1019,3 hPa 0,0 l/m 2,5 km/h (1 Bft) W 262 0 min 0,6 UV-I 69 W/m 11,7 C 14,6 C 4,8 km/h (1 Bft)
04.10.2021 12:22 14,6 C 14,4 C 15,6 C 83 % 1019,4 hPa 0,0 l/m 4,2 km/h (1 Bft) W-SW 258 0 min 0,6 UV-I 63 W/m 11,7 C 14,6 C 6,4 km/h (2 Bft)
04.10.2021 12:24 14,5 C 14,4 C 15,6 C 83 % 1019,4 hPa 0,0 l/m 3,6 km/h (1 Bft) W 259 0 min 0,6 UV-I 62 W/m 11,6 C 14,5 C 6,4 km/h (2 Bft)
04.10.2021 12:26 14,4 C 13,9 C 15,6 C 82 % 1019,5 hPa 0,0 l/m 4,9 km/h (1 Bft) W-SW 242 0 min 0,6 UV-I 60 W/m 11,4 C 14,4 C 6,4 km/h (2 Bft)
04.10.2021 12:28 14,4 C 13,9 C 15,6 C 82 % 1019,5 hPa 0,0 l/m 4,4 km/h (1 Bft) W 262 0 min 0,6 UV-I 63 W/m 11,4 C 14,4 C 6,4 km/h (2 Bft)
04.10.2021 12:30 14,4 C 13,9 C 15,6 C 82 % 1019,5 hPa 0,0 l/m 4,4 km/h (1 Bft) W 273 0 min 0,6 UV-I 62 W/m 11,4 C 14,4 C 6,4 km/h (2 Bft)
04.10.2021 12:32 14,5 C 13,9 C 15,6 C 83 % 1019,5 hPa 0,0 l/m 2,7 km/h (1 Bft) W 273 0 min 0,6 UV-I 62 W/m 11,6 C 14,5 C 4,8 km/h (1 Bft)
04.10.2021 12:34 14,5 C 13,9 C 15,6 C 83 % 1019,5 hPa 0,0 l/m 1,4 km/h (1 Bft) W 273 0 min 0,6 UV-I 69 W/m 11,6 C 14,5 C 3,2 km/h (1 Bft)
04.10.2021 12:36 14,5 C 13,9 C 15,6 C 83 % 1019,5 hPa 0,0 l/m 1,5 km/h (1 Bft) W 273 0 min 0,6 UV-I 70 W/m 11,6 C 14,5 C 3,2 km/h (1 Bft)
04.10.2021 12:38 14,4 C 13,9 C 15,6 C 83 % 1019,5 hPa 0,0 l/m 3,1 km/h (1 Bft) W 260 0 min 0,6 UV-I 67 W/m 11,5 C 14,4 C 6,4 km/h (2 Bft)
04.10.2021 12:40 14,4 C 13,9 C 15,6 C 83 % 1019,5 hPa 0,0 l/m 3,4 km/h (1 Bft) W 260 0 min 0,6 UV-I 67 W/m 11,5 C 14,4 C 4,8 km/h (1 Bft)
04.10.2021 12:42 14,4 C 13,9 C 15,6 C 83 % 1019,5 hPa 0,0 l/m 2,0 km/h (1 Bft) W 260 0 min 0,6 UV-I 65 W/m 11,5 C 14,4 C 3,2 km/h (1 Bft)
04.10.2021 12:44 14,4 C 13,9 C 15,6 C 84 % 1019,5 hPa 0,0 l/m 0,5 km/h (0 Bft) W 260 0 min 0,6 UV-I 70 W/m 11,7 C 14,4 C 3,2 km/h (1 Bft)
04.10.2021 12:46 14,4 C 13,9 C 15,6 C 84 % 1019,5 hPa 0,0 l/m 0,5 km/h (0 Bft) W 260 0 min 0,6 UV-I 72 W/m 11,7 C 14,4 C 1,6 km/h (1 Bft)
04.10.2021 12:48 14,4 C 13,9 C 15,6 C 84 % 1019,5 hPa 0,0 l/m 1,4 km/h (1 Bft) W 260 0 min 0,6 UV-I 76 W/m 11,7 C 14,4 C 3,2 km/h (1 Bft)
04.10.2021 12:50 14,4 C 13,9 C 15,6 C 84 % 1019,6 hPa 0,0 l/m 2,7 km/h (1 Bft) W 260 0 min 0,7 UV-I 77 W/m 11,7 C 14,4 C 4,8 km/h (1 Bft)
04.10.2021 12:52 14,4 C 13,9 C 15,6 C 84 % 1019,6 hPa 0,0 l/m 2,1 km/h (1 Bft) W 260 0 min 0,7 UV-I 77 W/m 11,7 C 14,4 C 4,8 km/h (1 Bft)
04.10.2021 12:54 14,4 C 13,9 C 15,6 C 84 % 1019,4 hPa 0,0 l/m 2,1 km/h (1 Bft) W 260 0 min 0,7 UV-I 93 W/m 11,7 C 14,4 C 4,8 km/h (1 Bft)
04.10.2021 12:56 14,4 C 13,9 C 15,6 C 84 % 1019,4 hPa 0,0 l/m 0,3 km/h (0 Bft) W 260 0 min 0,8 UV-I 102 W/m 11,7 C 14,4 C 1,6 km/h (1 Bft)
04.10.2021 12:58 14,4 C 13,9 C 15,6 C 84 % 1019,5 hPa 0,0 l/m 0,1 km/h (0 Bft) W 260 0 min 0,8 UV-I 97 W/m 11,7 C 14,4 C 1,6 km/h (1 Bft)
04.10.2021 13:00 14,4 C 13,9 C 15,6 C 84 % 1019,6 hPa 0,0 l/m 2,7 km/h (1 Bft) W 260 0 min 0,7 UV-I 84 W/m 11,7 C 14,4 C 4,8 km/h (1 Bft)
04.10.2021 13:02 14,4 C 13,9 C 15,6 C 84 % 1019,6 hPa 0,0 l/m 2,6 km/h (1 Bft) W 260 0 min 0,7 UV-I 79 W/m 11,7 C 14,4 C 4,8 km/h (1 Bft)
04.10.2021 13:04 14,4 C 13,9 C 15,6 C 84 % 1019,7 hPa 0,0 l/m 1,3 km/h (1 Bft) W 260 0 min 0,6 UV-I 72 W/m 11,7 C 14,4 C 3,2 km/h (1 Bft)
04.10.2021 13:06 14,4 C 13,9 C 15,6 C 84 % 1019,7 hPa 0,0 l/m 2,5 km/h (1 Bft) W 260 0 min 0,6 UV-I 63 W/m 11,7 C 14,4 C 4,8 km/h (1 Bft)
04.10.2021 13:08 14,4 C 13,9 C 15,6 C 84 % 1019,6 hPa 0,0 l/m 4,1 km/h (1 Bft) W 260 0 min 0,6 UV-I 67 W/m 11,7 C 14,4 C 4,8 km/h (1 Bft)
04.10.2021 13:10 14,4 C 13,9 C 15,6 C 85 % 1019,6 hPa 0,0 l/m 1,8 km/h (1 Bft) W 260 0 min 0,6 UV-I 69 W/m 11,9 C 14,4 C 4,8 km/h (1 Bft)
04.10.2021 13:12 14,3 C 13,9 C 15,6 C 85 % 1019,7 hPa 0,0 l/m 0,4 km/h (0 Bft) W 260 0 min 0,6 UV-I 72 W/m 11,8 C 14,3 C 3,2 km/h (1 Bft)
04.10.2021 13:14 14,3 C 13,9 C 15,6 C 85 % 1019,6 hPa 0,0 l/m 1,5 km/h (1 Bft) W 260 0 min 0,6 UV-I 74 W/m 11,8 C 14,3 C 3,2 km/h (1 Bft)
04.10.2021 13:16 14,3 C 13,9 C 15,6 C 85 % 1019,7 hPa 0,0 l/m 1,3 km/h (1 Bft) W 260 0 min 0,7 UV-I 77 W/m 11,8 C 14,3 C 3,2 km/h (1 Bft)
04.10.2021 13:18 14,3 C 13,9 C 15,6 C 85 % 1019,7 hPa 0,0 l/m 3,0 km/h (1 Bft) W 259 0 min 0,7 UV-I 90 W/m 11,8 C 14,3 C 4,8 km/h (1 Bft)
04.10.2021 13:20 14,3 C 13,9 C 15,6 C 85 % 1019,6 hPa 0,0 l/m 3,4 km/h (1 Bft) SW 223 0 min 0,7 UV-I 88 W/m 11,8 C 14,3 C 6,4 km/h (2 Bft)
04.10.2021 13:22 14,3 C 13,9 C 15,6 C 84 % 1019,7 hPa 0,0 l/m 2,2 km/h (1 Bft) SW 223 0 min 0,7 UV-I 84 W/m 11,6 C 14,3 C 4,8 km/h (1 Bft)
04.10.2021 13:24 14,4 C 13,9 C 16,1 C 85 % 1019,7 hPa 0,0 l/m 3,6 km/h (1 Bft) S-SW 196 0 min 0,7 UV-I 81 W/m 11,9 C 14,4 C 6,4 km/h (2 Bft)
04.10.2021 13:26 14,4 C 13,9 C 15,6 C 85 % 1019,7 hPa 0,0 l/m 3,4 km/h (1 Bft) S-SW 200 0 min 0,6 UV-I 76 W/m 11,9 C 14,4 C 6,4 km/h (2 Bft)
04.10.2021 13:28 14,4 C 13,9 C 15,6 C 85 % 1019,7 hPa 0,0 l/m 4,4 km/h (1 Bft) S-SW 198 0 min 0,6 UV-I 69 W/m 11,9 C 14,4 C 11,3 km/h (2 Bft)
04.10.2021 13:30 14,4 C 13,9 C 15,6 C 85 % 1019,7 hPa 0,0 l/m 3,7 km/h (1 Bft) SW 219 0 min 0,6 UV-I 62 W/m 11,9 C 14,4 C 6,4 km/h (2 Bft)
04.10.2021 13:32 14,3 C 13,9 C 15,6 C 85 % 1019,7 hPa 0,0 l/m 4,5 km/h (1 Bft) SW 220 0 min 0,6 UV-I 62 W/m 11,8 C 14,3 C 6,4 km/h (2 Bft)
04.10.2021 13:34 14,3 C 13,9 C 15,6 C 85 % 1019,5 hPa 0,0 l/m 3,1 km/h (1 Bft) W-SW 257 0 min 0,6 UV-I 70 W/m 11,8 C 14,3 C 6,4 km/h (2 Bft)
04.10.2021 13:36 14,3 C 13,9 C 15,6 C 85 % 1019,5 hPa 0,0 l/m 3,3 km/h (1 Bft) S-SW 201 0 min 0,7 UV-I 79 W/m 11,8 C 14,3 C 6,4 km/h (2 Bft)
04.10.2021 13:38 14,3 C 13,9 C 15,6 C 85 % 1019,5 hPa 0,0 l/m 1,7 km/h (1 Bft) S-SW 210 0 min 0,7 UV-I 83 W/m 11,8 C 14,3 C 4,8 km/h (1 Bft)
04.10.2021 13:40 14,3 C 13,9 C 15,6 C 85 % 1019,5 hPa 0,0 l/m 2,3 km/h (1 Bft) S 178 0 min 0,7 UV-I 81 W/m 11,8 C 14,3 C 4,8 km/h (1 Bft)
04.10.2021 13:42 14,3 C 13,9 C 15,6 C 85 % 1019,5 hPa 0,0 l/m 1,5 km/h (1 Bft) W-SW 244 0 min 0,7 UV-I 76 W/m 11,8 C 14,3 C 4,8 km/h (1 Bft)
04.10.2021 13:44 14,3 C 13,9 C 16,1 C 85 % 1019,6 hPa 0,0 l/m 2,0 km/h (1 Bft) W-SW 239 0 min 0,7 UV-I 79 W/m 11,8 C 14,3 C 4,8 km/h (1 Bft)
04.10.2021 13:46 14,3 C 13,9 C 16,1 C 85 % 1019,6 hPa 0,0 l/m 1,9 km/h (1 Bft) W-SW 239 0 min 0,7 UV-I 77 W/m 11,8 C 14,3 C 3,2 km/h (1 Bft)
04.10.2021 13:48 14,3 C 13,9 C 15,6 C 85 % 1019,6 hPa 0,0 l/m 1,5 km/h (1 Bft) SW 225 0 min 0,7 UV-I 76 W/m 11,8 C 14,3 C 3,2 km/h (1 Bft)
04.10.2021 13:50 14,3 C 14,4 C 15,6 C 85 % 1019,6 hPa 0,0 l/m 0,6 km/h (0 Bft) SW 225 0 min 0,7 UV-I 88 W/m 11,8 C 14,3 C 3,2 km/h (1 Bft)
04.10.2021 13:52 14,4 C 14,4 C 15,6 C 85 % 1019,6 hPa 0,0 l/m 2,7 km/h (1 Bft) S 174 0 min 0,7 UV-I 91 W/m 11,9 C 14,4 C 4,8 km/h (1 Bft)
04.10.2021 13:54 14,4 C 14,4 C 15,6 C 85 % 1019,6 hPa 0,0 l/m 0,9 km/h (0 Bft) S-SW 212 0 min 0,8 UV-I 95 W/m 11,9 C 14,4 C 3,2 km/h (1 Bft)
04.10.2021 13:56 14,4 C 14,4 C 16,1 C 85 % 1019,7 hPa 0,0 l/m 0,6 km/h (0 Bft) S-SW 212 0 min 0,7 UV-I 90 W/m 11,9 C 14,4 C 1,6 km/h (1 Bft)
04.10.2021 13:58 14,4 C 15,0 C 15,6 C 85 % 1019,8 hPa 0,0 l/m 1,1 km/h (1 Bft) S-SW 212 0 min 0,7 UV-I 95 W/m 11,9 C 14,4 C 3,2 km/h (1 Bft)
04.10.2021 14:00 14,5 C 15,0 C 15,6 C 85 % 1019,8 hPa 0,0 l/m 0,5 km/h (0 Bft) S-SW 212 0 min 0,8 UV-I 109 W/m 12,0 C 14,5 C 1,6 km/h (1 Bft)
04.10.2021 14:02 14,6 C 15,0 C 15,6 C 84 % 1019,7 hPa 0,0 l/m 2,3 km/h (1 Bft) SW 231 0 min 0,8 UV-I 105 W/m 11,9 C 14,6 C 4,8 km/h (1 Bft)
04.10.2021 14:04 14,6 C 15,0 C 15,6 C 85 % 1019,9 hPa 0,0 l/m 2,9 km/h (1 Bft) W 267 0 min 0,7 UV-I 86 W/m 12,1 C 14,6 C 4,8 km/h (1 Bft)
04.10.2021 14:06 14,6 C 15,0 C 15,6 C 84 % 1019,9 hPa 0,0 l/m 2,1 km/h (1 Bft) W-NW 283 0 min 0,7 UV-I 79 W/m 11,9 C 14,6 C 3,2 km/h (1 Bft)
04.10.2021 14:08 14,6 C 14,4 C 15,6 C 83 % 1019,9 hPa 0,0 l/m 2,7 km/h (1 Bft) W-NW 283 0 min 0,7 UV-I 81 W/m 11,7 C 14,6 C 4,8 km/h (1 Bft)
04.10.2021 14:10 14,6 C 15,0 C 15,6 C 84 % 1019,8 hPa 0,0 l/m 0,4 km/h (0 Bft) W-NW 283 0 min 0,8 UV-I 97 W/m 11,9 C 14,6 C 3,2 km/h (1 Bft)
04.10.2021 14:12 14,6 C 15,0 C 15,6 C 84 % 1019,7 hPa 0,0 l/m 0,7 km/h (0 Bft) W-NW 283 0 min 0,8 UV-I 98 W/m 11,9 C 14,6 C 3,2 km/h (1 Bft)
04.10.2021 14:14 14,7 C 15,6 C 15,6 C 84 % 1019,6 hPa 0,0 l/m 0,0 km/h (0 Bft) W-NW 283 0 min 0,9 UV-I 118 W/m 12,0 C 14,7 C 0,0 km/h (0 Bft)
04.10.2021 14:16 14,7 C 16,1 C 15,6 C 84 % 1019,6 hPa 0,0 l/m 0,0 km/h (0 Bft) W-NW 283 0 min 1,0 UV-I 137 W/m 12,0 C 14,7 C 0,0 km/h (0 Bft)
04.10.2021 14:18 14,7 C 16,1 C 15,6 C 83 % 1019,6 hPa 0,0 l/m 0,6 km/h (0 Bft) W-NW 283 0 min 0,9 UV-I 121 W/m 11,8 C 14,7 C 3,2 km/h (1 Bft)
04.10.2021 14:20 14,7 C 16,1 C 15,6 C 84 % 1019,6 hPa 0,0 l/m 0,9 km/h (0 Bft) W-NW 283 0 min 0,8 UV-I 105 W/m 12,0 C 14,7 C 3,2 km/h (1 Bft)
04.10.2021 14:22 14,7 C 16,1 C 16,1 C 84 % 1019,5 hPa 0,0 l/m 0,2 km/h (0 Bft) W-NW 283 0 min 0,8 UV-I 104 W/m 12,0 C 14,7 C 1,6 km/h (1 Bft)
04.10.2021 14:24 14,8 C 16,1 C 15,6 C 84 % 1019,6 hPa 0,0 l/m 1,6 km/h (1 Bft) SW 229 0 min 0,7 UV-I 81 W/m 12,1 C 14,8 C 4,8 km/h (1 Bft)
04.10.2021 14:26 14,8 C 16,1 C 15,6 C 84 % 1019,5 hPa 0,0 l/m 2,3 km/h (1 Bft) SW 223 0 min 0,6 UV-I 74 W/m 12,1 C 14,8 C 4,8 km/h (1 Bft)
04.10.2021 14:28 14,7 C 15,6 C 15,6 C 83 % 1019,5 hPa 0,0 l/m 5,1 km/h (1 Bft) SW 214 0 min 0,6 UV-I 79 W/m 11,8 C 14,7 C 9,7 km/h (2 Bft)
04.10.2021 14:30 14,7 C 15,6 C 15,6 C 83 % 1019,4 hPa 0,0 l/m 5,8 km/h (2 Bft) S 181 0 min 0,7 UV-I 93 W/m 11,8 C 14,7 C 9,7 km/h (2 Bft)
04.10.2021 14:32 14,6 C 15,6 C 15,6 C 83 % 1019,4 hPa 0,0 l/m 3,7 km/h (1 Bft) S-SW 198 0 min 0,7 UV-I 95 W/m 11,7 C 14,6 C 9,7 km/h (2 Bft)
04.10.2021 14:34 14,6 C 15,6 C 15,6 C 83 % 1019,5 hPa 0,0 l/m 2,3 km/h (1 Bft) SW 233 0 min 0,7 UV-I 83 W/m 11,7 C 14,6 C 6,4 km/h (2 Bft)
04.10.2021 14:36 14,7 C 15,6 C 16,1 C 83 % 1019,5 hPa 0,0 l/m 2,3 km/h (1 Bft) W-SW 248 0 min 0,7 UV-I 83 W/m 11,8 C 14,7 C 8,0 km/h (2 Bft)
04.10.2021 14:38 14,6 C 15,6 C 15,6 C 83 % 1019,6 hPa 0,0 l/m 3,1 km/h (1 Bft) W-NW 287 0 min 0,7 UV-I 88 W/m 11,7 C 14,6 C 8,0 km/h (2 Bft)
04.10.2021 14:40 14,6 C 15,6 C 16,1 C 82 % 1019,7 hPa 0,0 l/m 3,8 km/h (1 Bft) N-NW 332 0 min 0,7 UV-I 91 W/m 11,6 C 14,6 C 6,4 km/h (2 Bft)
04.10.2021 14:42 14,7 C 15,6 C 16,1 C 83 % 1019,8 hPa 0,0 l/m 4,4 km/h (1 Bft) N-NW 336 0 min 0,7 UV-I 88 W/m 11,8 C 14,7 C 8,0 km/h (2 Bft)
04.10.2021 14:44 14,7 C 15,6 C 16,1 C 82 % 1019,8 hPa 0,0 l/m 4,9 km/h (1 Bft) W-NW 298 0 min 0,6 UV-I 81 W/m 11,7 C 14,7 C 8,0 km/h (2 Bft)
04.10.2021 14:46 14,6 C 15,0 C 15,6 C 82 % 1019,7 hPa 0,0 l/m 4,6 km/h (1 Bft) W-SW 251 0 min 0,6 UV-I 77 W/m 11,6 C 14,6 C 8,0 km/h (2 Bft)
04.10.2021 14:48 14,6 C 15,0 C 15,6 C 82 % 1019,6 hPa 0,0 l/m 4,5 km/h (1 Bft) W 281 0 min 0,6 UV-I 81 W/m 11,6 C 14,6 C 6,4 km/h (2 Bft)
04.10.2021 14:50 14,6 C 15,0 C 15,6 C 82 % 1019,6 hPa 0,0 l/m 4,9 km/h (1 Bft) W-NW 295 0 min 0,7 UV-I 88 W/m 11,6 C 14,6 C 8,0 km/h (2 Bft)
04.10.2021 14:52 14,6 C 15,0 C 15,6 C 83 % 1019,6 hPa 0,0 l/m 2,9 km/h (1 Bft) W-NW 298 0 min 0,7 UV-I 90 W/m 11,7 C 14,6 C 6,4 km/h (2 Bft)
04.10.2021 14:54 14,6 C 15,6 C 16,1 C 83 % 1019,6 hPa 0,0 l/m 3,9 km/h (1 Bft) W 280 0 min 0,7 UV-I 84 W/m 11,7 C 14,6 C 6,4 km/h (2 Bft)
04.10.2021 14:56 14,6 C 15,6 C 16,1 C 83 % 1019,7 hPa 0,0 l/m 3,3 km/h (1 Bft) W 276 0 min 0,7 UV-I 86 W/m 11,7 C 14,6 C 6,4 km/h (2 Bft)
04.10.2021 14:58 14,6 C 15,0 C 15,6 C 83 % 1019,6 hPa 0,0 l/m 3,9 km/h (1 Bft) W-NW 296 0 min 0,7 UV-I 86 W/m 11,7 C 14,6 C 6,4 km/h (2 Bft)
04.10.2021 15:00 14,6 C 15,0 C 15,6 C 83 % 1019,6 hPa 0,0 l/m 2,6 km/h (1 Bft) W-SW 239 0 min 0,6 UV-I 79 W/m 11,7 C 14,6 C 4,8 km/h (1 Bft)
04.10.2021 15:02 14,6 C 15,0 C 15,6 C 83 % 1019,6 hPa 0,0 l/m 4,4 km/h (1 Bft) SW 235 0 min 0,6 UV-I 72 W/m 11,7 C 14,6 C 6,4 km/h (2 Bft)
04.10.2021 15:04 14,6 C 15,0 C 16,1 C 83 % 1019,6 hPa 0,0 l/m 4,3 km/h (1 Bft) W-SW 241 0 min 0,5 UV-I 69 W/m 11,7 C 14,6 C 6,4 km/h (2 Bft)
04.10.2021 15:06 14,6 C 15,0 C 16,1 C 82 % 1019,6 hPa 0,0 l/m 4,1 km/h (1 Bft) W 261 0 min 0,6 UV-I 70 W/m 11,6 C 14,6 C 9,7 km/h (2 Bft)
04.10.2021 15:08 14,6 C 15,0 C 15,6 C 82 % 1019,6 hPa 0,0 l/m 3,4 km/h (1 Bft) W 262 0 min 0,5 UV-I 70 W/m 11,6 C 14,6 C 6,4 km/h (2 Bft)
04.10.2021 15:10 14,6 C 15,0 C 15,6 C 82 % 1019,6 hPa 0,0 l/m 2,8 km/h (1 Bft) W-SW 246 0 min 0,5 UV-I 60 W/m 11,6 C 14,6 C 6,4 km/h (2 Bft)
04.10.2021 15:12 14,5 C 15,0 C 16,1 C 82 % 1019,6 hPa 0,0 l/m 1,5 km/h (1 Bft) W-SW 246 0 min 0,0 UV-I 54 W/m 11,5 C 14,5 C 4,8 km/h (1 Bft)
04.10.2021 15:14 14,5 C 15,0 C 16,1 C 82 % 1019,6 hPa 0,0 l/m 3,2 km/h (1 Bft) W 260 0 min 0,0 UV-I 51 W/m 11,5 C 14,5 C 6,4 km/h (2 Bft)
04.10.2021 15:16 14,4 C 14,4 C 16,1 C 82 % 1019,6 hPa 0,0 l/m 4,5 km/h (1 Bft) W 275 0 min 0,0 UV-I 49 W/m 11,4 C 14,4 C 8,0 km/h (2 Bft)
04.10.2021 15:18 14,4 C 14,4 C 16,1 C 82 % 1019,5 hPa 0,0 l/m 5,6 km/h (2 Bft) W-SW 258 0 min 0,0 UV-I 47 W/m 11,4 C 14,4 C 11,3 km/h (2 Bft)
04.10.2021 15:20 14,3 C 14,4 C 16,1 C 82 % 1019,5 hPa 0,0 l/m 3,8 km/h (1 Bft) W-SW 237 0 min 0,0 UV-I 46 W/m 11,3 C 14,3 C 6,4 km/h (2 Bft)
04.10.2021 15:22 14,3 C 14,4 C 15,6 C 82 % 1019,5 hPa 0,0 l/m 4,8 km/h (1 Bft) SW 235 0 min 0,0 UV-I 54 W/m 11,3 C 14,3 C 6,4 km/h (2 Bft)
04.10.2021 15:24 14,3 C 14,4 C 15,6 C 81 % 1019,4 hPa 0,0 l/m 7,5 km/h (2 Bft) W-SW 237 0 min 0,5 UV-I 60 W/m 11,1 C 14,3 C 11,3 km/h (2 Bft)
04.10.2021 15:26 14,3 C 14,4 C 15,6 C 81 % 1019,4 hPa 0,0 l/m 4,4 km/h (1 Bft) S-SW 205 0 min 0,5 UV-I 72 W/m 11,1 C 14,3 C 8,0 km/h (2 Bft)
04.10.2021 15:28 14,3 C 14,4 C 15,6 C 81 % 1019,4 hPa 0,0 l/m 4,5 km/h (1 Bft) W-SW 245 0 min 0,6 UV-I 83 W/m 11,1 C 14,3 C 8,0 km/h (2 Bft)
04.10.2021 15:30 14,3 C 14,4 C 16,1 C 81 % 1019,3 hPa 0,0 l/m 3,0 km/h (1 Bft) SW 222 0 min 0,6 UV-I 83 W/m 11,1 C 14,3 C 8,0 km/h (2 Bft)
04.10.2021 15:32 14,3 C 15,0 C 15,6 C 81 % 1019,2 hPa 0,0 l/m 1,8 km/h (1 Bft) SW 225 0 min 0,6 UV-I 83 W/m 11,1 C 14,3 C 4,8 km/h (1 Bft)
04.10.2021 15:34 14,3 C 15,0 C 16,1 C 81 % 1019,2 hPa 0,0 l/m 2,8 km/h (1 Bft) SW 231 0 min 0,5 UV-I 77 W/m 11,1 C 14,3 C 6,4 km/h (2 Bft)
04.10.2021 15:36 14,4 C 15,0 C 16,1 C 81 % 1019,3 hPa 0,0 l/m 1,9 km/h (1 Bft) W-SW 248 0 min 0,5 UV-I 77 W/m 11,2 C 14,4 C 6,4 km/h (2 Bft)
04.10.2021 15:38 14,3 C 15,0 C 15,6 C 81 % 1019,2 hPa 0,0 l/m 1,4 km/h (1 Bft) S-SW 210 0 min 0,5 UV-I 83 W/m 11,1 C 14,3 C 3,2 km/h (1 Bft)
04.10.2021 15:40 14,3 C 15,0 C 15,6 C 82 % 1019,2 hPa 0,0 l/m 1,5 km/h (1 Bft) S-SW 200 0 min 0,5 UV-I 84 W/m 11,3 C 14,3 C 4,8 km/h (1 Bft)
04.10.2021 15:42 14,3 C 15,0 C 15,6 C 82 % 1019,2 hPa 0,0 l/m 3,0 km/h (1 Bft) S-SW 197 0 min 0,5 UV-I 81 W/m 11,3 C 14,3 C 6,4 km/h (2 Bft)
04.10.2021 15:44 14,3 C 15,0 C 16,1 C 82 % 1019,2 hPa 0,0 l/m 4,2 km/h (1 Bft) S-SW 200 0 min 0,5 UV-I 74 W/m 11,3 C 14,3 C 8,0 km/h (2 Bft)
04.10.2021 15:46 14,3 C 15,0 C 16,1 C 82 % 1019,2 hPa 0,0 l/m 2,6 km/h (1 Bft) S-SW 192 0 min 0,5 UV-I 67 W/m 11,3 C 14,3 C 4,8 km/h (1 Bft)
04.10.2021 15:48 14,3 C 15,0 C 16,1 C 81 % 1019,2 hPa 0,0 l/m 2,5 km/h (1 Bft) S-SW 211 0 min 0,5 UV-I 63 W/m 11,1 C 14,3 C 4,8 km/h (1 Bft)
04.10.2021 15:50 14,3 C 15,0 C 16,1 C 81 % 1019,3 hPa 0,0 l/m 0,7 km/h (0 Bft) S-SW 211 0 min 0,5 UV-I 67 W/m 11,1 C 14,3 C 3,2 km/h (1 Bft)
04.10.2021 15:52 14,3 C 15,0 C 15,6 C 82 % 1019,3 hPa 0,0 l/m 1,3 km/h (1 Bft) S-SW 211 0 min 0,5 UV-I 62 W/m 11,3 C 14,3 C 4,8 km/h (1 Bft)
04.10.2021 15:54 14,3 C 15,0 C 15,6 C 82 % 1019,3 hPa 0,0 l/m 1,3 km/h (1 Bft) S-SW 211 0 min 0,5 UV-I 63 W/m 11,3 C 14,3 C 4,8 km/h (1 Bft)
04.10.2021 15:56 14,3 C 15,0 C 16,1 C 82 % 1019,3 hPa 0,0 l/m 3,3 km/h (1 Bft) S-SW 196 0 min 0,5 UV-I 76 W/m 11,3 C 14,3 C 6,4 km/h (2 Bft)
04.10.2021 15:58 14,3 C 15,0 C 16,1 C 82 % 1019,3 hPa 0,0 l/m 3,3 km/h (1 Bft) S-SW 206 0 min 0,5 UV-I 70 W/m 11,3 C 14,3 C 6,4 km/h (2 Bft)
04.10.2021 16:00 14,3 C 15,0 C 16,1 C 82 % 1019,2 hPa 0,0 l/m 4,1 km/h (1 Bft) SW 215 0 min 0,5 UV-I 65 W/m 11,3 C 14,3 C 8,0 km/h (2 Bft)
04.10.2021 16:02 14,3 C 14,4 C 16,1 C 81 % 1019,2 hPa 0,0 l/m 3,5 km/h (1 Bft) S-SW 211 0 min 0,5 UV-I 63 W/m 11,1 C 14,3 C 6,4 km/h (2 Bft)
04.10.2021 16:04 14,3 C 14,4 C 16,1 C 82 % 1019,2 hPa 0,0 l/m 4,5 km/h (1 Bft) SW 222 0 min 0,5 UV-I 74 W/m 11,3 C 14,3 C 6,4 km/h (2 Bft)
04.10.2021 16:06 14,3 C 14,4 C 16,1 C 82 % 1019,2 hPa 0,0 l/m 2,2 km/h (1 Bft) S-SW 194 0 min 0,5 UV-I 79 W/m 11,3 C 14,3 C 6,4 km/h (2 Bft)
04.10.2021 16:08 14,3 C 14,4 C 15,6 C 82 % 1019,2 hPa 0,0 l/m 2,9 km/h (1 Bft) S-SW 208 0 min 0,5 UV-I 83 W/m 11,3 C 14,3 C 6,4 km/h (2 Bft)
04.10.2021 16:10 14,3 C 14,4 C 16,1 C 82 % 1019,1 hPa 0,0 l/m 4,4 km/h (1 Bft) S-SW 211 0 min 0,6 UV-I 88 W/m 11,3 C 14,3 C 8,0 km/h (2 Bft)
04.10.2021 16:12 14,3 C 14,4 C 15,6 C 82 % 1019,2 hPa 0,0 l/m 4,9 km/h (1 Bft) SW 220 0 min 0,6 UV-I 100 W/m 11,3 C 14,3 C 9,7 km/h (2 Bft)
04.10.2021 16:14 14,3 C 14,4 C 15,6 C 82 % 1019,3 hPa 0,0 l/m 4,8 km/h (1 Bft) SW 225 0 min 0,5 UV-I 91 W/m 11,3 C 14,3 C 6,4 km/h (2 Bft)
04.10.2021 16:16 14,3 C 14,4 C 15,6 C 82 % 1019,2 hPa 0,0 l/m 3,2 km/h (1 Bft) S 188 0 min 0,5 UV-I 77 W/m 11,3 C 14,3 C 4,8 km/h (1 Bft)
04.10.2021 16:18 14,4 C 14,4 C 16,1 C 83 % 1019,2 hPa 0,0 l/m 4,1 km/h (1 Bft) S-SW 194 0 min 0,5 UV-I 76 W/m 11,5 C 14,4 C 9,7 km/h (2 Bft)
04.10.2021 16:20 14,3 C 14,4 C 15,6 C 83 % 1019,1 hPa 0,0 l/m 2,2 km/h (1 Bft) S-SW 205 0 min 0,5 UV-I 83 W/m 11,5 C 14,3 C 6,4 km/h (2 Bft)
04.10.2021 16:22 14,3 C 14,4 C 15,6 C 82 % 1019,1 hPa 0,0 l/m 4,3 km/h (1 Bft) S-SW 194 0 min 0,5 UV-I 100 W/m 11,3 C 14,3 C 6,4 km/h (2 Bft)
04.10.2021 16:24 14,3 C 14,4 C 15,6 C 82 % 1019,1 hPa 0,2 l/m 4,8 km/h (1 Bft) S-SW 210 0 min 0,5 UV-I 105 W/m 11,3 C 14,3 C 6,4 km/h (2 Bft)
04.10.2021 16:26 14,3 C 14,4 C 16,1 C 82 % 1019,1 hPa 0,0 l/m 1,6 km/h (1 Bft) S-SW 194 0 min 0,5 UV-I 77 W/m 11,3 C 14,3 C 4,8 km/h (1 Bft)
04.10.2021 16:28 14,3 C 14,4 C 16,1 C 82 % 1019,1 hPa 0,0 l/m 3,5 km/h (1 Bft) S 191 0 min 0,0 UV-I 63 W/m 11,3 C 14,3 C 6,4 km/h (2 Bft)
04.10.2021 16:30 14,3 C 14,4 C 16,1 C 82 % 1019,2 hPa 0,0 l/m 2,7 km/h (1 Bft) S-SW 198 0 min 0,0 UV-I 51 W/m 11,3 C 14,3 C 4,8 km/h (1 Bft)
04.10.2021 16:32 14,3 C 14,4 C 16,1 C 82 % 1019,2 hPa 0,0 l/m 5,3 km/h (1 Bft) S-SW 208 0 min 0,0 UV-I 44 W/m 11,3 C 14,3 C 8,0 km/h (2 Bft)
04.10.2021 16:34 14,3 C 14,4 C 15,6 C 82 % 1019,3 hPa 0,0 l/m 4,9 km/h (1 Bft) S-SW 200 0 min 0,0 UV-I 51 W/m 11,3 C 14,3 C 8,0 km/h (2 Bft)
04.10.2021 16:36 14,2 C 14,4 C 15,6 C 82 % 1019,3 hPa 0,0 l/m 4,4 km/h (1 Bft) S-SW 207 0 min 0,0 UV-I 58 W/m 11,2 C 14,2 C 8,0 km/h (2 Bft)
04.10.2021 16:38 14,2 C 14,4 C 15,6 C 82 % 1019,2 hPa 0,0 l/m 4,4 km/h (1 Bft) S-SW 197 0 min 0,0 UV-I 63 W/m 11,2 C 14,2 C 8,0 km/h (2 Bft)
04.10.2021 16:40 14,3 C 14,4 C 15,6 C 82 % 1019,1 hPa 0,0 l/m 3,2 km/h (1 Bft) S-SW 198 0 min 0,0 UV-I 56 W/m 11,3 C 14,3 C 4,8 km/h (1 Bft)
04.10.2021 16:42 14,2 C 14,4 C 15,6 C 82 % 1019,2 hPa 0,0 l/m 4,0 km/h (1 Bft) W-SW 239 0 min 0,0 UV-I 46 W/m 11,2 C 14,2 C 8,0 km/h (2 Bft)
04.10.2021 16:44 14,2 C 14,4 C 15,6 C 82 % 1019,3 hPa 0,0 l/m 2,6 km/h (1 Bft) W-SW 237 0 min 0,0 UV-I 37 W/m 11,2 C 14,2 C 4,8 km/h (1 Bft)
04.10.2021 16:46 14,2 C 14,4 C 15,6 C 83 % 1019,3 hPa 0,0 l/m 3,5 km/h (1 Bft) S-SW 208 0 min 0,0 UV-I 37 W/m 11,4 C 14,2 C 6,4 km/h (2 Bft)
04.10.2021 16:48 14,2 C 13,9 C 16,1 C 82 % 1019,4 hPa 0,0 l/m 4,5 km/h (1 Bft) S-SW 213 0 min 0,0 UV-I 33 W/m 11,2 C 14,2 C 6,4 km/h (2 Bft)
04.10.2021 16:50 14,1 C 13,9 C 15,6 C 82 % 1019,4 hPa 0,0 l/m 4,4 km/h (1 Bft) S 180 0 min 0,0 UV-I 32 W/m 11,1 C 14,1 C 6,4 km/h (2 Bft)
04.10.2021 16:52 14,1 C 13,9 C 16,1 C 82 % 1019,4 hPa 0,0 l/m 5,3 km/h (1 Bft) W-SW 246 0 min 0,0 UV-I 35 W/m 11,1 C 14,1 C 8,0 km/h (2 Bft)
04.10.2021 16:54 14,1 C 13,9 C 16,1 C 82 % 1019,3 hPa 0,0 l/m 2,8 km/h (1 Bft) SW 222 0 min 0,0 UV-I 44 W/m 11,1 C 14,1 C 8,0 km/h (2 Bft)
04.10.2021 16:56 14,1 C 13,9 C 16,1 C 82 % 1019,3 hPa 0,0 l/m 2,3 km/h (1 Bft) W-SW 248 0 min 0,0 UV-I 44 W/m 11,1 C 14,1 C 4,8 km/h (1 Bft)
04.10.2021 16:58 14,1 C 13,9 C 16,1 C 82 % 1019,4 hPa 0,0 l/m 3,0 km/h (1 Bft) W-SW 242 0 min 0,0 UV-I 40 W/m 11,1 C 14,1 C 6,4 km/h (2 Bft)
04.10.2021 17:00 14,1 C 13,9 C 16,1 C 82 % 1019,5 hPa 0,0 l/m 4,9 km/h (1 Bft) W-SW 255 0 min 0,0 UV-I 39 W/m 11,1 C 14,1 C 8,0 km/h (2 Bft)
04.10.2021 17:02 14,2 C 13,9 C 16,1 C 82 % 1019,5 hPa 0,0 l/m 3,2 km/h (1 Bft) W-SW 245 0 min 0,0 UV-I 39 W/m 11,2 C 14,2 C 6,4 km/h (2 Bft)
04.10.2021 17:04 14,1 C 13,9 C 16,1 C 82 % 1019,5 hPa 0,0 l/m 3,9 km/h (1 Bft) S-SW 213 0 min 0,0 UV-I 39 W/m 11,1 C 14,1 C 6,4 km/h (2 Bft)
04.10.2021 17:06 14,1 C 13,9 C 16,1 C 82 % 1019,5 hPa 0,0 l/m 4,0 km/h (1 Bft) SW 217 0 min 0,0 UV-I 35 W/m 11,1 C 14,1 C 6,4 km/h (2 Bft)
04.10.2021 17:08 14,1 C 13,9 C 15,6 C 82 % 1019,5 hPa 0,0 l/m 1,6 km/h (1 Bft) W-SW 244 0 min 0,0 UV-I 35 W/m 11,1 C 14,1 C 4,8 km/h (1 Bft)
04.10.2021 17:10 14,1 C 13,9 C 16,1 C 82 % 1019,4 hPa 0,0 l/m 1,7 km/h (1 Bft) W-SW 242 0 min 0,0 UV-I 35 W/m 11,1 C 14,1 C 3,2 km/h (1 Bft)
04.10.2021 17:12 14,1 C 13,9 C 16,1 C 82 % 1019,4 hPa 0,0 l/m 1,7 km/h (1 Bft) W-SW 249 0 min 0,0 UV-I 39 W/m 11,1 C 14,1 C 4,8 km/h (1 Bft)
04.10.2021 17:14 14,1 C 13,9 C 15,6 C 82 % 1019,4 hPa 0,0 l/m 5,0 km/h (1 Bft) SW 215 0 min 0,0 UV-I 42 W/m 11,1 C 14,1 C 8,0 km/h (2 Bft)
04.10.2021 17:16 14,1 C 13,9 C 16,1 C 82 % 1019,4 hPa 0,0 l/m 4,9 km/h (1 Bft) SW 232 0 min 0,0 UV-I 47 W/m 11,1 C 14,1 C 9,7 km/h (2 Bft)
04.10.2021 17:18 14,1 C 13,9 C 15,6 C 82 % 1019,4 hPa 0,0 l/m 2,7 km/h (1 Bft) W-SW 242 0 min 0,0 UV-I 49 W/m 11,1 C 14,1 C 4,8 km/h (1 Bft)
04.10.2021 17:20 14,1 C 13,9 C 16,1 C 82 % 1019,3 hPa 0,0 l/m 3,1 km/h (1 Bft) W-SW 252 0 min 0,0 UV-I 42 W/m 11,1 C 14,1 C 6,4 km/h (2 Bft)
04.10.2021 17:22 14,1 C 13,9 C 16,1 C 82 % 1019,4 hPa 0,0 l/m 4,3 km/h (1 Bft) W-SW 246 0 min 0,0 UV-I 44 W/m 11,1 C 14,1 C 6,4 km/h (2 Bft)
04.10.2021 17:24 14,1 C 13,9 C 16,1 C 82 % 1019,4 hPa 0,0 l/m 4,8 km/h (1 Bft) W-SW 244 0 min 0,0 UV-I 39 W/m 11,1 C 14,1 C 8,0 km/h (2 Bft)
04.10.2021 17:26 14,1 C 13,9 C 16,1 C 82 % 1019,3 hPa 0,0 l/m 3,1 km/h (1 Bft) S-SW 205 0 min 0,0 UV-I 35 W/m 11,1 C 14,1 C 8,0 km/h (2 Bft)
04.10.2021 17:28 14,1 C 13,9 C 16,1 C 82 % 1019,1 hPa 0,0 l/m 3,3 km/h (1 Bft) SW 214 0 min 0,0 UV-I 35 W/m 11,1 C 14,1 C 8,0 km/h (2 Bft)
04.10.2021 17:30 14,0 C 13,9 C 16,1 C 82 % 1019,1 hPa 0,0 l/m 0,7 km/h (0 Bft) SW 214 0 min 0,0 UV-I 33 W/m 11,0 C 14,0 C 3,2 km/h (1 Bft)
04.10.2021 17:32 14,0 C 13,9 C 16,1 C 82 % 1019,0 hPa 0,0 l/m 2,8 km/h (1 Bft) S-SW 193 0 min 0,0 UV-I 33 W/m 11,0 C 14,0 C 4,8 km/h (1 Bft)
04.10.2021 17:34 13,9 C 13,9 C 15,6 C 82 % 1019,1 hPa 0,0 l/m 1,5 km/h (1 Bft) S-SW 198 0 min 0,0 UV-I 30 W/m 10,9 C 13,9 C 3,2 km/h (1 Bft)
04.10.2021 17:36 13,9 C 13,3 C 15,6 C 82 % 1019,2 hPa 0,0 l/m 4,1 km/h (1 Bft) W-SW 241 0 min 0,0 UV-I 28 W/m 10,9 C 13,9 C 8,0 km/h (2 Bft)
04.10.2021 17:38 13,9 C 13,3 C 16,1 C 82 % 1019,2 hPa 0,0 l/m 3,9 km/h (1 Bft) W-SW 258 0 min 0,0 UV-I 28 W/m 10,9 C 13,9 C 6,4 km/h (2 Bft)
04.10.2021 17:40 13,9 C 13,3 C 16,1 C 82 % 1019,2 hPa 0,0 l/m 2,6 km/h (1 Bft) W-SW 258 0 min 0,0 UV-I 28 W/m 10,9 C 13,9 C 6,4 km/h (2 Bft)
04.10.2021 17:42 13,9 C 13,3 C 16,1 C 82 % 1019,2 hPa 0,0 l/m 1,8 km/h (1 Bft) W-SW 256 0 min 0,0 UV-I 26 W/m 10,9 C 13,9 C 6,4 km/h (2 Bft)
04.10.2021 17:44 13,8 C 13,3 C 15,6 C 82 % 1019,3 hPa 0,0 l/m 3,8 km/h (1 Bft) SW 228 0 min 0,0 UV-I 28 W/m 10,8 C 13,8 C 6,4 km/h (2 Bft)
04.10.2021 17:46 13,8 C 13,3 C 16,1 C 82 % 1019,3 hPa 0,0 l/m 2,6 km/h (1 Bft) W-SW 239 0 min 0,0 UV-I 28 W/m 10,8 C 13,8 C 4,8 km/h (1 Bft)
04.10.2021 17:48 13,8 C 13,3 C 16,1 C 82 % 1019,3 hPa 0,0 l/m 2,6 km/h (1 Bft) W-SW 238 0 min 0,0 UV-I 30 W/m 10,8 C 13,8 C 6,4 km/h (2 Bft)
04.10.2021 17:50 13,8 C 13,3 C 16,1 C 83 % 1019,3 hPa 0,0 l/m 2,8 km/h (1 Bft) W-SW 256 0 min 0,0 UV-I 32 W/m 11,0 C 13,8 C 4,8 km/h (1 Bft)
04.10.2021 17:52 13,8 C 13,3 C 15,6 C 82 % 1019,3 hPa 0,0 l/m 3,9 km/h (1 Bft) W 267 0 min 0,0 UV-I 30 W/m 10,8 C 13,8 C 8,0 km/h (2 Bft)
04.10.2021 17:54 13,8 C 13,3 C 15,6 C 83 % 1019,3 hPa 0,0 l/m 3,7 km/h (1 Bft) W-NW 302 0 min 0,0 UV-I 30 W/m 11,0 C 13,8 C 6,4 km/h (2 Bft)
04.10.2021 17:56 13,8 C 13,3 C 15,6 C 83 % 1019,4 hPa 0,0 l/m 3,5 km/h (1 Bft) W 265 0 min 0,0 UV-I 28 W/m 11,0 C 13,8 C 6,4 km/h (2 Bft)
04.10.2021 17:58 13,8 C 13,3 C 15,6 C 83 % 1019,4 hPa 0,0 l/m 3,2 km/h (1 Bft) W-NW 288 0 min 0,0 UV-I 25 W/m 11,0 C 13,8 C 6,4 km/h (2 Bft)
04.10.2021 18:00 13,8 C 13,3 C 15,6 C 83 % 1019,5 hPa 0,0 l/m 3,6 km/h (1 Bft) NW 304 0 min 0,0 UV-I 21 W/m 11,0 C 13,8 C 6,4 km/h (2 Bft)
04.10.2021 18:02 13,8 C 13,3 C 16,1 C 83 % 1019,5 hPa 0,0 l/m 4,2 km/h (1 Bft) NW 308 0 min 0,0 UV-I 19 W/m 11,0 C 13,8 C 4,8 km/h (1 Bft)
04.10.2021 18:04 13,7 C 13,3 C 16,1 C 83 % 1019,5 hPa 0,0 l/m 2,2 km/h (1 Bft) NW 308 0 min 0,0 UV-I 19 W/m 10,9 C 13,7 C 4,8 km/h (1 Bft)
04.10.2021 18:06 13,7 C 13,3 C 16,1 C 83 % 1019,4 hPa 0,0 l/m 2,6 km/h (1 Bft) W-NW 296 0 min 0,0 UV-I 18 W/m 10,9 C 13,7 C 6,4 km/h (2 Bft)
04.10.2021 18:08 13,7 C 13,3 C 16,1 C 83 % 1019,4 hPa 0,0 l/m 0,4 km/h (0 Bft) W-NW 296 0 min 0,0 UV-I 16 W/m 10,9 C 13,7 C 3,2 km/h (1 Bft)
04.10.2021 18:10 13,7 C 13,3 C 16,1 C 83 % 1019,3 hPa 0,0 l/m 1,6 km/h (1 Bft) W-NW 296 0 min 0,0 UV-I 12 W/m 10,9 C 13,7 C 3,2 km/h (1 Bft)
04.10.2021 18:12 13,7 C 13,3 C 16,1 C 83 % 1019,3 hPa 0,0 l/m 0,9 km/h (0 Bft) W-NW 296 0 min 0,0 UV-I 11 W/m 10,9 C 13,7 C 3,2 km/h (1 Bft)
04.10.2021 18:14 13,7 C 13,3 C 15,6 C 83 % 1019,3 hPa 0,0 l/m 1,7 km/h (1 Bft) W-NW 296 0 min 0,0 UV-I 11 W/m 10,9 C 13,7 C 4,8 km/h (1 Bft)
04.10.2021 18:16 13,7 C 12,8 C 15,6 C 83 % 1019,4 hPa 0,0 l/m 0,9 km/h (0 Bft) W-NW 296 0 min 0,0 UV-I 9 W/m 10,9 C 13,7 C 3,2 km/h (1 Bft)
04.10.2021 18:18 13,7 C 12,8 C 16,1 C 83 % 1019,4 hPa 0,0 l/m 0,7 km/h (0 Bft) W-NW 296 0 min 0,0 UV-I 9 W/m 10,9 C 13,7 C 1,6 km/h (1 Bft)
04.10.2021 18:20 13,6 C 12,8 C 16,1 C 83 % 1019,4 hPa 0,0 l/m 0,0 km/h (0 Bft) W-NW 296 0 min 0,0 UV-I 9 W/m 10,8 C 13,6 C 0,0 km/h (0 Bft)
04.10.2021 18:22 13,6 C 12,8 C 15,6 C 84 % 1019,4 hPa 0,0 l/m 0,0 km/h (0 Bft) W-NW 296 0 min 0,0 UV-I 9 W/m 10,9 C 13,6 C 0,0 km/h (0 Bft)
04.10.2021 18:24 13,6 C 12,8 C 16,1 C 84 % 1019,4 hPa 0,0 l/m 0,0 km/h (0 Bft) W-NW 296 0 min 0,0 UV-I 9 W/m 10,9 C 13,6 C 0,0 km/h (0 Bft)
04.10.2021 18:26 13,5 C 12,8 C 16,1 C 84 % 1019,4 hPa 0,0 l/m 0,3 km/h (0 Bft) W-NW 296 0 min 0,0 UV-I 7 W/m 10,8 C 13,5 C 3,2 km/h (1 Bft)
04.10.2021 18:28 13,4 C 12,8 C 16,1 C 84 % 1019,4 hPa 0,0 l/m 0,9 km/h (0 Bft) W-NW 296 0 min 0,0 UV-I 7 W/m 10,8 C 13,4 C 3,2 km/h (1 Bft)
04.10.2021 18:30 13,4 C 12,2 C 15,6 C 84 % 1019,4 hPa 0,0 l/m 2,4 km/h (1 Bft) S-SW 208 0 min 0,0 UV-I 7 W/m 10,8 C 13,4 C 4,8 km/h (1 Bft)
04.10.2021 18:32 13,4 C 12,2 C 16,1 C 84 % 1019,3 hPa 0,0 l/m 2,7 km/h (1 Bft) SW 231 0 min 0,0 UV-I 7 W/m 10,8 C 13,4 C 4,8 km/h (1 Bft)
04.10.2021 18:34 13,3 C 12,2 C 16,1 C 85 % 1019,2 hPa 0,0 l/m 1,4 km/h (1 Bft) SW 215 0 min 0,0 UV-I 7 W/m 10,8 C 13,3 C 4,8 km/h (1 Bft)
04.10.2021 18:36 13,3 C 12,2 C 16,1 C 85 % 1019,2 hPa 0,0 l/m 2,0 km/h (1 Bft) S-SW 194 0 min 0,0 UV-I 5 W/m 10,8 C 13,3 C 4,8 km/h (1 Bft)
04.10.2021 18:38 13,3 C 12,2 C 15,6 C 85 % 1019,3 hPa 0,0 l/m 1,2 km/h (1 Bft) S-SW 194 0 min 0,0 UV-I 5 W/m 10,8 C 13,3 C 3,2 km/h (1 Bft)
04.10.2021 18:40 13,2 C 12,2 C 15,6 C 85 % 1019,3 hPa 0,0 l/m 1,1 km/h (1 Bft) S 183 0 min 0,0 UV-I 5 W/m 10,7 C 13,2 C 4,8 km/h (1 Bft)
04.10.2021 18:42 13,2 C 12,2 C 16,1 C 85 % 1019,3 hPa 0,0 l/m 0,4 km/h (0 Bft) S 183 0 min 0,0 UV-I 5 W/m 10,7 C 13,2 C 3,2 km/h (1 Bft)
04.10.2021 18:44 13,2 C 12,2 C 15,6 C 85 % 1019,4 hPa 0,0 l/m 2,2 km/h (1 Bft) W-SW 243 0 min 0,0 UV-I 5 W/m 10,7 C 13,2 C 4,8 km/h (1 Bft)
04.10.2021 18:46 13,2 C 12,2 C 16,1 C 85 % 1019,5 hPa 0,0 l/m 2,7 km/h (1 Bft) W-SW 243 0 min 0,0 UV-I 0 W/m 10,7 C 13,2 C 4,8 km/h (1 Bft)
04.10.2021 18:48 13,2 C 12,2 C 15,6 C 85 % 1019,5 hPa 0,0 l/m 2,5 km/h (1 Bft) W-NW 289 0 min 0,0 UV-I 0 W/m 10,7 C 13,2 C 4,8 km/h (1 Bft)
04.10.2021 18:50 13,2 C 12,2 C 16,1 C 85 % 1019,6 hPa 0,0 l/m 4,2 km/h (1 Bft) W-SW 255 0 min 0,0 UV-I 0 W/m 10,7 C 13,2 C 6,4 km/h (2 Bft)
04.10.2021 18:52 13,2 C 12,2 C 16,1 C 85 % 1019,5 hPa 0,0 l/m 4,4 km/h (1 Bft) W-SW 252 0 min 0,0 UV-I 0 W/m 10,7 C 13,2 C 6,4 km/h (2 Bft)
04.10.2021 18:54 13,1 C 12,2 C 16,1 C 85 % 1019,5 hPa 0,0 l/m 1,7 km/h (1 Bft) W-SW 252 0 min 0,0 UV-I 0 W/m 10,6 C 13,1 C 3,2 km/h (1 Bft)
04.10.2021 18:56 13,1 C 12,2 C 15,6 C 85 % 1019,6 hPa 0,0 l/m 0,7 km/h (0 Bft) W-SW 252 0 min 0,0 UV-I 0 W/m 10,6 C 13,1 C 4,8 km/h (1 Bft)
04.10.2021 18:58 13,1 C 11,7 C 15,6 C 85 % 1019,6 hPa 0,0 l/m 0,0 km/h (0 Bft) W-SW 252 0 min 0,0 UV-I 0 W/m 10,6 C 13,1 C 0,0 km/h (0 Bft)
04.10.2021 19:00 13,1 C 11,7 C 16,1 C 85 % 1019,7 hPa 0,0 l/m 0,0 km/h (0 Bft) W-SW 252 0 min 0,0 UV-I 0 W/m 10,6 C 13,1 C 0,0 km/h (0 Bft)
04.10.2021 19:02 13,0 C 11,7 C 15,6 C 85 % 1019,8 hPa 0,0 l/m 0,0 km/h (0 Bft) W-SW 252 0 min 0,0 UV-I 0 W/m 10,5 C 13,0 C 0,0 km/h (0 Bft)
04.10.2021 19:04 13,0 C 11,7 C 16,1 C 85 % 1019,8 hPa 0,0 l/m 0,7 km/h (0 Bft) W-SW 252 0 min 0,0 UV-I 0 W/m 10,5 C 13,0 C 4,8 km/h (1 Bft)
04.10.2021 19:06 12,9 C 11,7 C 16,1 C 85 % 1019,7 hPa 0,0 l/m 0,6 km/h (0 Bft) W-SW 252 0 min 0,0 UV-I 0 W/m 10,4 C 12,9 C 3,2 km/h (1 Bft)
04.10.2021 19:08 12,9 C 11,7 C 15,6 C 85 % 1019,7 hPa 0,0 l/m 1,4 km/h (1 Bft) W-SW 252 0 min 0,0 UV-I 0 W/m 10,4 C 12,9 C 6,4 km/h (2 Bft)
04.10.2021 19:10 12,9 C 11,7 C 15,6 C 85 % 1019,7 hPa 0,0 l/m 3,0 km/h (1 Bft) W-SW 252 0 min 0,0 UV-I 0 W/m 10,4 C 12,9 C 4,8 km/h (1 Bft)
04.10.2021 19:12 12,9 C 11,7 C 16,1 C 85 % 1019,7 hPa 0,0 l/m 0,1 km/h (0 Bft) W-SW 252 0 min 0,0 UV-I 0 W/m 10,4 C 12,9 C 1,6 km/h (1 Bft)
04.10.2021 19:14 12,9 C 11,7 C 15,6 C 85 % 1019,7 hPa 0,0 l/m 0,8 km/h (0 Bft) W-SW 252 0 min 0,0 UV-I 0 W/m 10,4 C 12,9 C 4,8 km/h (1 Bft)
04.10.2021 19:16 12,9 C 11,7 C 15,6 C 85 % 1019,8 hPa 0,0 l/m 0,0 km/h (0 Bft) W-SW 252 0 min 0,0 UV-I 0 W/m 10,4 C 12,9 C 0,0 km/h (0 Bft)
04.10.2021 19:18 12,9 C 11,7 C 15,6 C 85 % 1019,8 hPa 0,0 l/m 0,0 km/h (0 Bft) W-SW 252 0 min 0,0 UV-I 0 W/m 10,4 C 12,9 C 1,6 km/h (1 Bft)
04.10.2021 19:20 12,8 C 11,7 C 15,6 C 85 % 1019,8 hPa 0,0 l/m 2,2 km/h (1 Bft) W-SW 252 0 min 0,0 UV-I 0 W/m 10,3 C 12,8 C 4,8 km/h (1 Bft)
04.10.2021 19:22 12,8 C 11,7 C 16,1 C 85 % 1019,8 hPa 0,0 l/m 1,0 km/h (0 Bft) W-SW 252 0 min 0,0 UV-I 0 W/m 10,3 C 12,8 C 3,2 km/h (1 Bft)
04.10.2021 19:24 12,8 C 11,7 C 16,1 C 85 % 1019,7 hPa 0,0 l/m 0,0 km/h (0 Bft) W-SW 252 0 min 0,0 UV-I 0 W/m 10,3 C 12,8 C 0,0 km/h (0 Bft)
04.10.2021 19:26 12,8 C 11,7 C 15,6 C 85 % 1019,6 hPa 0,0 l/m 0,1 km/h (0 Bft) W-SW 252 0 min 0,0 UV-I 0 W/m 10,3 C 12,8 C 1,6 km/h (1 Bft)
04.10.2021 19:28 12,8 C 11,7 C 15,6 C 85 % 1019,6 hPa 0,0 l/m 1,5 km/h (1 Bft) W-SW 252 0 min 0,0 UV-I 0 W/m 10,3 C 12,8 C 3,2 km/h (1 Bft)
04.10.2021 19:30 12,7 C 11,7 C 15,6 C 85 % 1019,7 hPa 0,0 l/m 0,0 km/h (0 Bft) W-SW 252 0 min 0,0 UV-I 0 W/m 10,2 C 12,7 C 1,6 km/h (1 Bft)
04.10.2021 19:32 12,7 C 11,7 C 15,6 C 85 % 1019,6 hPa 0,0 l/m 0,0 km/h (0 Bft) W-SW 252 0 min 0,0 UV-I 0 W/m 10,2 C 12,7 C 0,0 km/h (0 Bft)
04.10.2021 19:34 12,6 C 11,7 C 16,1 C 86 % 1019,5 hPa 0,0 l/m 0,3 km/h (0 Bft) W-SW 250 0 min 0,0 UV-I 0 W/m 10,3 C 12,6 C 3,2 km/h (1 Bft)
04.10.2021 19:36 12,6 C 11,1 C 15,6 C 86 % 1019,5 hPa 0,0 l/m 0,2 km/h (0 Bft) W-SW 250 0 min 0,0 UV-I 0 W/m 10,3 C 12,6 C 3,2 km/h (1 Bft)
04.10.2021 19:38 12,5 C 11,1 C 15,6 C 86 % 1019,5 hPa 0,0 l/m 0,0 km/h (0 Bft) W-SW 250 0 min 0,0 UV-I 0 W/m 10,2 C 12,5 C 0,0 km/h (0 Bft)
04.10.2021 19:40 12,4 C 11,1 C 15,6 C 86 % 1019,6 hPa 0,0 l/m 0,3 km/h (0 Bft) W-SW 250 0 min 0,0 UV-I 0 W/m 10,1 C 12,4 C 1,6 km/h (1 Bft)
04.10.2021 19:42 12,4 C 11,1 C 16,1 C 86 % 1019,6 hPa 0,0 l/m 0,0 km/h (0 Bft) W-SW 250 0 min 0,0 UV-I 0 W/m 10,1 C 12,4 C 0,0 km/h (0 Bft)
04.10.2021 19:44 12,3 C 11,1 C 15,6 C 87 % 1019,6 hPa 0,0 l/m 0,0 km/h (0 Bft) W-SW 250 0 min 0,0 UV-I 0 W/m 10,2 C 12,3 C 0,0 km/h (0 Bft)
04.10.2021 19:46 12,3 C 10,6 C 16,1 C 87 % 1019,6 hPa 0,0 l/m 0,0 km/h (0 Bft) W-SW 250 0 min 0,0 UV-I 0 W/m 10,2 C 12,3 C 0,0 km/h (0 Bft)
04.10.2021 19:48 12,3 C 10,6 C 15,6 C 87 % 1019,6 hPa 0,0 l/m 0,0 km/h (0 Bft) W-SW 250 0 min 0,0 UV-I 0 W/m 10,2 C 12,3 C 0,0 km/h (0 Bft)
04.10.2021 19:50 12,3 C 10,6 C 15,6 C 87 % 1019,5 hPa 0,0 l/m 0,0 km/h (0 Bft) W-SW 250 0 min 0,0 UV-I 0 W/m 10,2 C 12,3 C 0,0 km/h (0 Bft)
04.10.2021 19:52 12,2 C 10,6 C 15,6 C 87 % 1019,5 hPa 0,0 l/m 1,5 km/h (1 Bft) W-SW 250 0 min 0,0 UV-I 0 W/m 10,1 C 12,2 C 3,2 km/h (1 Bft)
04.10.2021 19:54 12,2 C 10,6 C 15,6 C 87 % 1019,5 hPa 0,0 l/m 0,6 km/h (0 Bft) W-SW 250 0 min 0,0 UV-I 0 W/m 10,1 C 12,2 C 1,6 km/h (1 Bft)
04.10.2021 19:56 12,1 C 10,6 C 16,1 C 87 % 1019,6 hPa 0,0 l/m 0,0 km/h (0 Bft) W-SW 250 0 min 0,0 UV-I 0 W/m 10,0 C 12,1 C 0,0 km/h (0 Bft)
04.10.2021 19:58 12,1 C 10,6 C 15,6 C 87 % 1019,5 hPa 0,0 l/m 0,0 km/h (0 Bft) W-SW 250 0 min 0,0 UV-I 0 W/m 10,0 C 12,1 C 0,0 km/h (0 Bft)
04.10.2021 20:00 12,1 C 10,6 C 15,6 C 87 % 1019,5 hPa 0,0 l/m 0,6 km/h (0 Bft) W-SW 250 0 min 0,0 UV-I 0 W/m 10,0 C 12,1 C 1,6 km/h (1 Bft)
04.10.2021 20:02 12,0 C 10,6 C 15,6 C 88 % 1019,4 hPa 0,0 l/m 2,0 km/h (1 Bft) W-SW 249 0 min 0,0 UV-I 0 W/m 10,1 C 12,0 C 3,2 km/h (1 Bft)
04.10.2021 20:04 12,0 C 10,6 C 16,1 C 88 % 1019,4 hPa 0,0 l/m 1,5 km/h (1 Bft) W-SW 249 0 min 0,0 UV-I 0 W/m 10,1 C 12,0 C 3,2 km/h (1 Bft)
04.10.2021 20:06 12,0 C 10,6 C 15,6 C 88 % 1019,4 hPa 0,0 l/m 1,5 km/h (1 Bft) W-SW 249 0 min 0,0 UV-I 0 W/m 10,1 C 12,0 C 3,2 km/h (1 Bft)
04.10.2021 20:08 12,0 C 10,6 C 16,1 C 88 % 1019,4 hPa 0,0 l/m 1,0 km/h (0 Bft) W-SW 249 0 min 0,0 UV-I 0 W/m 10,1 C 12,0 C 3,2 km/h (1 Bft)
04.10.2021 20:10 12,0 C 10,6 C 15,6 C 88 % 1019,3 hPa 0,0 l/m 0,7 km/h (0 Bft) W-SW 249 0 min 0,0 UV-I 0 W/m 10,1 C 12,0 C 3,2 km/h (1 Bft)
04.10.2021 20:12 11,9 C 10,6 C 15,6 C 88 % 1019,3 hPa 0,0 l/m 2,0 km/h (1 Bft) W-SW 249 0 min 0,0 UV-I 0 W/m 10,0 C 11,9 C 3,2 km/h (1 Bft)
04.10.2021 20:14 11,9 C 10,6 C 15,6 C 88 % 1019,3 hPa 0,0 l/m 2,1 km/h (1 Bft) W-SW 249 0 min 0,0 UV-I 0 W/m 10,0 C 11,9 C 3,2 km/h (1 Bft)
04.10.2021 20:16 11,9 C 10,6 C 15,6 C 88 % 1019,3 hPa 0,0 l/m 2,0 km/h (1 Bft) SW 222 0 min 0,0 UV-I 0 W/m 10,0 C 11,9 C 4,8 km/h (1 Bft)
04.10.2021 20:18 11,9 C 10,6 C 15,6 C 88 % 1019,4 hPa 0,0 l/m 2,7 km/h (1 Bft) SW 222 0 min 0,0 UV-I 0 W/m 10,0 C 11,9 C 4,8 km/h (1 Bft)
04.10.2021 20:20 11,9 C 10,6 C 15,6 C 88 % 1019,4 hPa 0,0 l/m 2,2 km/h (1 Bft) SW 222 0 min 0,0 UV-I 0 W/m 10,0 C 11,9 C 3,2 km/h (1 Bft)
04.10.2021 20:22 12,0 C 10,6 C 15,6 C 88 % 1019,4 hPa 0,0 l/m 2,3 km/h (1 Bft) SW 222 0 min 0,0 UV-I 0 W/m 10,1 C 12,0 C 3,2 km/h (1 Bft)
04.10.2021 20:24 11,9 C 10,6 C 15,6 C 88 % 1019,4 hPa 0,0 l/m 1,6 km/h (1 Bft) SW 222 0 min 0,0 UV-I 0 W/m 10,0 C 11,9 C 4,8 km/h (1 Bft)
04.10.2021 20:26 11,9 C 10,6 C 15,6 C 88 % 1019,5 hPa 0,0 l/m 2,5 km/h (1 Bft) SW 218 0 min 0,0 UV-I 0 W/m 10,0 C 11,9 C 4,8 km/h (1 Bft)
04.10.2021 20:28 11,9 C 10,6 C 15,6 C 88 % 1019,5 hPa 0,0 l/m 2,5 km/h (1 Bft) SW 218 0 min 0,0 UV-I 0 W/m 10,0 C 11,9 C 4,8 km/h (1 Bft)
04.10.2021 20:30 11,9 C 10,6 C 15,6 C 88 % 1019,5 hPa 0,0 l/m 2,6 km/h (1 Bft) SW 217 0 min 0,0 UV-I 0 W/m 10,0 C 11,9 C 3,2 km/h (1 Bft)
04.10.2021 20:32 11,9 C 10,6 C 15,6 C 88 % 1019,5 hPa 0,0 l/m 2,6 km/h (1 Bft) SW 217 0 min 0,0 UV-I 0 W/m 10,0 C 11,9 C 4,8 km/h (1 Bft)
04.10.2021 20:34 11,9 C 10,6 C 15,6 C 88 % 1019,6 hPa 0,0 l/m 2,6 km/h (1 Bft) SW 218 0 min 0,0 UV-I 0 W/m 10,0 C 11,9 C 4,8 km/h (1 Bft)
04.10.2021 20:36 11,9 C 10,6 C 15,6 C 89 % 1019,5 hPa 0,0 l/m 1,7 km/h (1 Bft) SW 217 0 min 0,0 UV-I 0 W/m 10,1 C 11,9 C 3,2 km/h (1 Bft)
04.10.2021 20:38 11,9 C 10,6 C 15,6 C 89 % 1019,5 hPa 0,0 l/m 0,9 km/h (0 Bft) SW 217 0 min 0,0 UV-I 0 W/m 10,1 C 11,9 C 3,2 km/h (1 Bft)
04.10.2021 20:40 11,8 C 10,6 C 15,6 C 89 % 1019,5 hPa 0,0 l/m 0,9 km/h (0 Bft) SW 218 0 min 0,0 UV-I 0 W/m 10,0 C 11,8 C 3,2 km/h (1 Bft)
04.10.2021 20:42 11,8 C 10,6 C 15,6 C 89 % 1019,5 hPa 0,0 l/m 2,5 km/h (1 Bft) SW 217 0 min 0,0 UV-I 0 W/m 10,0 C 11,8 C 3,2 km/h (1 Bft)
04.10.2021 20:44 11,8 C 10,6 C 15,6 C 89 % 1019,4 hPa 0,0 l/m 2,2 km/h (1 Bft) SW 217 0 min 0,0 UV-I 0 W/m 10,0 C 11,8 C 4,8 km/h (1 Bft)
04.10.2021 20:46 11,8 C 10,6 C 15,6 C 89 % 1019,5 hPa 0,0 l/m 2,2 km/h (1 Bft) SW 217 0 min 0,0 UV-I 0 W/m 10,0 C 11,8 C 4,8 km/h (1 Bft)
04.10.2021 20:48 11,8 C 10,6 C 15,6 C 89 % 1019,5 hPa 0,0 l/m 2,2 km/h (1 Bft) SW 217 0 min 0,0 UV-I 0 W/m 10,0 C 11,8 C 4,8 km/h (1 Bft)
04.10.2021 20:50 11,9 C 10,6 C 15,6 C 89 % 1019,5 hPa 0,0 l/m 1,9 km/h (1 Bft) SW 217 0 min 0,0 UV-I 0 W/m 10,1 C 11,9 C 3,2 km/h (1 Bft)
04.10.2021 20:52 11,8 C 10,6 C 15,6 C 89 % 1019,5 hPa 0,0 l/m 2,3 km/h (1 Bft) SW 217 0 min 0,0 UV-I 0 W/m 10,0 C 11,8 C 3,2 km/h (1 Bft)
04.10.2021 20:54 11,8 C 10,6 C 15,6 C 89 % 1019,5 hPa 0,0 l/m 2,2 km/h (1 Bft) SW 217 0 min 0,0 UV-I 0 W/m 10,0 C 11,8 C 3,2 km/h (1 Bft)
04.10.2021 20:56 11,8 C 10,6 C 15,6 C 89 % 1019,5 hPa 0,0 l/m 2,0 km/h (1 Bft) SW 217 0 min 0,0 UV-I 0 W/m 10,0 C 11,8 C 3,2 km/h (1 Bft)
04.10.2021 20:58 11,8 C 10,6 C 15,6 C 89 % 1019,5 hPa 0,0 l/m 2,0 km/h (1 Bft) SW 217 0 min 0,0 UV-I 0 W/m 10,0 C 11,8 C 3,2 km/h (1 Bft)
04.10.2021 21:00 11,8 C 10,6 C 15,6 C 89 % 1019,5 hPa 0,0 l/m 2,6 km/h (1 Bft) SW 217 0 min 0,0 UV-I 0 W/m 10,0 C 11,8 C 4,8 km/h (1 Bft)
04.10.2021 21:02 11,8 C 10,6 C 15,6 C 89 % 1019,4 hPa 0,0 l/m 2,8 km/h (1 Bft) S 184 0 min 0,0 UV-I 0 W/m 10,0 C 11,8 C 4,8 km/h (1 Bft)
04.10.2021 21:04 11,8 C 10,6 C 15,6 C 89 % 1019,5 hPa 0,0 l/m 2,4 km/h (1 Bft) S 183 0 min 0,0 UV-I 0 W/m 10,0 C 11,8 C 6,4 km/h (2 Bft)
04.10.2021 21:06 11,8 C 10,6 C 15,6 C 89 % 1019,5 hPa 0,0 l/m 1,4 km/h (1 Bft) S-SO 161 0 min 0,0 UV-I 0 W/m 10,0 C 11,8 C 4,8 km/h (1 Bft)
04.10.2021 21:08 11,8 C 10,6 C 15,6 C 89 % 1019,5 hPa 0,0 l/m 2,0 km/h (1 Bft) S 173 0 min 0,0 UV-I 0 W/m 10,0 C 11,8 C 4,8 km/h (1 Bft)
04.10.2021 21:10 11,8 C 10,6 C 15,6 C 89 % 1019,5 hPa 0,0 l/m 3,7 km/h (1 Bft) S 183 0 min 0,0 UV-I 0 W/m 10,0 C 11,8 C 6,4 km/h (2 Bft)
04.10.2021 21:12 11,8 C 10,6 C 15,6 C 89 % 1019,5 hPa 0,0 l/m 3,8 km/h (1 Bft) S 191 0 min 0,0 UV-I 0 W/m 10,0 C 11,8 C 6,4 km/h (2 Bft)
04.10.2021 21:14 11,8 C 10,6 C 15,6 C 89 % 1019,5 hPa 0,0 l/m 3,2 km/h (1 Bft) SW 228 0 min 0,0 UV-I 0 W/m 10,0 C 11,8 C 6,4 km/h (2 Bft)
04.10.2021 21:16 11,8 C 10,6 C 15,6 C 89 % 1019,5 hPa 0,0 l/m 3,2 km/h (1 Bft) S-SW 195 0 min 0,0 UV-I 0 W/m 10,0 C 11,8 C 6,4 km/h (2 Bft)
04.10.2021 21:18 11,8 C 10,6 C 15,6 C 89 % 1019,5 hPa 0,0 l/m 4,4 km/h (1 Bft) S-SW 200 0 min 0,0 UV-I 0 W/m 10,0 C 11,8 C 6,4 km/h (2 Bft)
04.10.2021 21:20 11,7 C 10,6 C 15,6 C 89 % 1019,5 hPa 0,0 l/m 3,9 km/h (1 Bft) S 177 0 min 0,0 UV-I 0 W/m 9,9 C 11,7 C 6,4 km/h (2 Bft)
04.10.2021 21:22 11,8 C 10,6 C 15,6 C 89 % 1019,4 hPa 0,0 l/m 2,2 km/h (1 Bft) S-SW 208 0 min 0,0 UV-I 0 W/m 10,0 C 11,8 C 4,8 km/h (1 Bft)
04.10.2021 21:24 11,7 C 10,6 C 15,6 C 89 % 1019,4 hPa 0,0 l/m 3,6 km/h (1 Bft) S-SW 200 0 min 0,0 UV-I 0 W/m 9,9 C 11,7 C 6,4 km/h (2 Bft)
04.10.2021 21:26 11,7 C 10,6 C 15,6 C 89 % 1019,3 hPa 0,0 l/m 3,4 km/h (1 Bft) S-SW 198 0 min 0,0 UV-I 0 W/m 9,9 C 11,7 C 6,4 km/h (2 Bft)
04.10.2021 21:28 11,7 C 10,6 C 15,6 C 89 % 1019,3 hPa 0,0 l/m 5,8 km/h (2 Bft) S-SW 202 0 min 0,0 UV-I 0 W/m 9,9 C 11,7 C 8,0 km/h (2 Bft)
04.10.2021 21:30 11,7 C 10,6 C 15,6 C 89 % 1019,3 hPa 0,0 l/m 5,6 km/h (2 Bft) S 184 0 min 0,0 UV-I 0 W/m 9,9 C 11,7 C 6,4 km/h (2 Bft)
04.10.2021 21:32 11,8 C 11,1 C 15,6 C 89 % 1019,3 hPa 0,0 l/m 3,6 km/h (1 Bft) S-SW 198 0 min 0,0 UV-I 0 W/m 10,0 C 11,8 C 6,4 km/h (2 Bft)
04.10.2021 21:34 11,7 C 11,1 C 15,6 C 89 % 1019,3 hPa 0,0 l/m 2,7 km/h (1 Bft) S-SW 203 0 min 0,0 UV-I 0 W/m 9,9 C 11,7 C 4,8 km/h (1 Bft)
04.10.2021 21:36 11,8 C 10,6 C 15,6 C 89 % 1019,3 hPa 0,0 l/m 2,7 km/h (1 Bft) W-SW 246 0 min 0,0 UV-I 0 W/m 10,0 C 11,8 C 6,4 km/h (2 Bft)
04.10.2021 21:38 11,8 C 10,6 C 15,6 C 89 % 1019,3 hPa 0,0 l/m 2,0 km/h (1 Bft) S-SW 204 0 min 0,0 UV-I 0 W/m 10,0 C 11,8 C 4,8 km/h (1 Bft)
04.10.2021 21:40 11,8 C 10,6 C 15,6 C 89 % 1019,3 hPa 0,0 l/m 1,2 km/h (1 Bft) S-SW 204 0 min 0,0 UV-I 0 W/m 10,0 C 11,8 C 4,8 km/h (1 Bft)
04.10.2021 21:42 11,8 C 10,6 C 15,6 C 89 % 1019,3 hPa 0,0 l/m 3,1 km/h (1 Bft) S-SO 167 0 min 0,0 UV-I 0 W/m 10,0 C 11,8 C 6,4 km/h (2 Bft)
04.10.2021 21:44 11,7 C 10,6 C 15,6 C 89 % 1019,3 hPa 0,0 l/m 0,4 km/h (0 Bft) S 169 0 min 0,0 UV-I 0 W/m 9,9 C 11,7 C 3,2 km/h (1 Bft)
04.10.2021 21:46 11,8 C 10,6 C 15,6 C 89 % 1019,3 hPa 0,0 l/m 0,2 km/h (0 Bft) S 169 0 min 0,0 UV-I 0 W/m 10,0 C 11,8 C 1,6 km/h (1 Bft)
04.10.2021 21:48 11,8 C 10,6 C 15,6 C 89 % 1019,3 hPa 0,0 l/m 0,3 km/h (0 Bft) S 170 0 min 0,0 UV-I 0 W/m 10,0 C 11,8 C 1,6 km/h (1 Bft)
04.10.2021 21:50 11,7 C 10,6 C 15,6 C 89 % 1019,3 hPa 0,0 l/m 0,8 km/h (0 Bft) S 170 0 min 0,0 UV-I 0 W/m 9,9 C 11,7 C 3,2 km/h (1 Bft)
04.10.2021 21:52 11,7 C 10,6 C 15,6 C 89 % 1019,3 hPa 0,0 l/m 1,6 km/h (1 Bft) S-SW 206 0 min 0,0 UV-I 0 W/m 9,9 C 11,7 C 4,8 km/h (1 Bft)
04.10.2021 21:54 11,7 C 10,6 C 15,6 C 89 % 1019,4 hPa 0,0 l/m 1,8 km/h (1 Bft) S-SW 204 0 min 0,0 UV-I 0 W/m 9,9 C 11,7 C 3,2 km/h (1 Bft)
04.10.2021 21:56 11,7 C 10,6 C 15,6 C 89 % 1019,4 hPa 0,0 l/m 2,1 km/h (1 Bft) SW 236 0 min 0,0 UV-I 0 W/m 9,9 C 11,7 C 4,8 km/h (1 Bft)
04.10.2021 21:58 11,7 C 10,6 C 15,6 C 89 % 1019,4 hPa 0,0 l/m 2,2 km/h (1 Bft) S-SW 213 0 min 0,0 UV-I 0 W/m 9,9 C 11,7 C 4,8 km/h (1 Bft)
04.10.2021 22:00 11,8 C 10,6 C 15,6 C 89 % 1019,3 hPa 0,0 l/m 2,5 km/h (1 Bft) S 186 0 min 0,0 UV-I 0 W/m 10,0 C 11,8 C 6,4 km/h (2 Bft)
04.10.2021 22:02 11,7 C 10,6 C 15,6 C 89 % 1019,2 hPa 0,0 l/m 0,2 km/h (0 Bft) S 185 0 min 0,0 UV-I 0 W/m 9,9 C 11,7 C 1,6 km/h (1 Bft)
04.10.2021 22:04 11,7 C 10,6 C 15,6 C 89 % 1019,2 hPa 0,0 l/m 0,5 km/h (0 Bft) S 186 0 min 0,0 UV-I 0 W/m 9,9 C 11,7 C 1,6 km/h (1 Bft)
04.10.2021 22:06 11,7 C 10,6 C 15,6 C 89 % 1019,1 hPa 0,0 l/m 1,8 km/h (1 Bft) S 182 0 min 0,0 UV-I 0 W/m 9,9 C 11,7 C 4,8 km/h (1 Bft)
04.10.2021 22:08 11,7 C 10,6 C 15,6 C 89 % 1019,2 hPa 0,0 l/m 1,8 km/h (1 Bft) S 182 0 min 0,0 UV-I 0 W/m 9,9 C 11,7 C 3,2 km/h (1 Bft)
04.10.2021 22:10 11,6 C 10,6 C 15,6 C 89 % 1019,2 hPa 0,0 l/m 2,0 km/h (1 Bft) S 170 0 min 0,0 UV-I 0 W/m 9,8 C 11,6 C 4,8 km/h (1 Bft)
04.10.2021 22:12 11,7 C 10,6 C 15,6 C 89 % 1019,2 hPa 0,0 l/m 0,4 km/h (0 Bft) S 170 0 min 0,0 UV-I 0 W/m 9,9 C 11,7 C 1,6 km/h (1 Bft)
04.10.2021 22:14 11,6 C 10,6 C 15,6 C 89 % 1019,1 hPa 0,0 l/m 0,0 km/h (0 Bft) S 170 0 min 0,0 UV-I 0 W/m 9,8 C 11,6 C 1,6 km/h (1 Bft)
04.10.2021 22:16 11,6 C 10,6 C 15,6 C 89 % 1019,1 hPa 0,0 l/m 0,1 km/h (0 Bft) S 170 0 min 0,0 UV-I 0 W/m 9,8 C 11,6 C 1,6 km/h (1 Bft)
04.10.2021 22:18 11,6 C 10,6 C 15,6 C 89 % 1019,1 hPa 0,0 l/m 0,2 km/h (0 Bft) S 170 0 min 0,0 UV-I 0 W/m 9,8 C 11,6 C 3,2 km/h (1 Bft)
04.10.2021 22:20 11,6 C 10,6 C 15,6 C 89 % 1019,1 hPa 0,0 l/m 1,2 km/h (1 Bft) S 170 0 min 0,0 UV-I 0 W/m 9,8 C 11,6 C 3,2 km/h (1 Bft)
04.10.2021 22:22 11,6 C 10,6 C 15,6 C 90 % 1019,1 hPa 0,0 l/m 1,0 km/h (0 Bft) S 170 0 min 0,0 UV-I 0 W/m 10,0 C 11,6 C 3,2 km/h (1 Bft)
04.10.2021 22:24 11,7 C 10,6 C 15,6 C 90 % 1019,2 hPa 0,0 l/m 0,7 km/h (0 Bft) S 171 0 min 0,0 UV-I 0 W/m 10,1 C 11,7 C 3,2 km/h (1 Bft)
04.10.2021 22:26 11,7 C 10,6 C 15,6 C 90 % 1019,2 hPa 0,0 l/m 1,1 km/h (1 Bft) S 171 0 min 0,0 UV-I 0 W/m 10,1 C 11,7 C 3,2 km/h (1 Bft)
04.10.2021 22:28 11,7 C 10,6 C 15,6 C 90 % 1019,1 hPa 0,0 l/m 0,7 km/h (0 Bft) S 170 0 min 0,0 UV-I 0 W/m 10,1 C 11,7 C 3,2 km/h (1 Bft)
04.10.2021 22:30 11,7 C 10,6 C 15,6 C 90 % 1019,0 hPa 0,0 l/m 1,7 km/h (1 Bft) S 170 0 min 0,0 UV-I 0 W/m 10,1 C 11,7 C 3,2 km/h (1 Bft)
04.10.2021 22:32 11,7 C 11,1 C 15,6 C 90 % 1019,1 hPa 0,0 l/m 0,9 km/h (0 Bft) S 170 0 min 0,0 UV-I 0 W/m 10,1 C 11,7 C 3,2 km/h (1 Bft)
04.10.2021 22:34 11,7 C 11,1 C 15,6 C 90 % 1019,1 hPa 0,0 l/m 0,1 km/h (0 Bft) S 171 0 min 0,0 UV-I 0 W/m 10,1 C 11,7 C 1,6 km/h (1 Bft)
04.10.2021 22:36 11,7 C 11,1 C 15,6 C 90 % 1019,1 hPa 0,0 l/m 0,0 km/h (0 Bft) S 171 0 min 0,0 UV-I 0 W/m 10,1 C 11,7 C 0,0 km/h (0 Bft)
04.10.2021 22:38 11,7 C 11,1 C 15,6 C 90 % 1019,1 hPa 0,0 l/m 0,1 km/h (0 Bft) S 171 0 min 0,0 UV-I 0 W/m 10,1 C 11,7 C 1,6 km/h (1 Bft)
04.10.2021 22:40 11,7 C 11,1 C 15,6 C 90 % 1019,0 hPa 0,0 l/m 0,0 km/h (0 Bft) S 171 0 min 0,0 UV-I 0 W/m 10,1 C 11,7 C 0,0 km/h (0 Bft)
04.10.2021 22:42 11,7 C 11,1 C 15,6 C 90 % 1019,0 hPa 0,0 l/m 0,0 km/h (0 Bft) S 170 0 min 0,0 UV-I 0 W/m 10,1 C 11,7 C 0,0 km/h (0 Bft)
04.10.2021 22:44 11,7 C 11,1 C 15,6 C 90 % 1019,0 hPa 0,0 l/m 0,4 km/h (0 Bft) S 170 0 min 0,0 UV-I 0 W/m 10,1 C 11,7 C 1,6 km/h (1 Bft)
04.10.2021 22:46 11,8 C 11,1 C 15,6 C 90 % 1019,0 hPa 0,0 l/m 0,2 km/h (0 Bft) S 171 0 min 0,0 UV-I 0 W/m 10,2 C 11,8 C 1,6 km/h (1 Bft)
04.10.2021 22:48 11,8 C 11,1 C 15,6 C 90 % 1019,0 hPa 0,0 l/m 0,0 km/h (0 Bft) S 170 0 min 0,0 UV-I 0 W/m 10,2 C 11,8 C 0,0 km/h (0 Bft)
04.10.2021 22:50 11,8 C 11,1 C 15,6 C 90 % 1018,9 hPa 0,0 l/m 1,6 km/h (1 Bft) S 171 0 min 0,0 UV-I 0 W/m 10,2 C 11,8 C 3,2 km/h (1 Bft)
04.10.2021 22:52 11,8 C 11,1 C 15,6 C 90 % 1018,8 hPa 0,0 l/m 1,2 km/h (1 Bft) S 171 0 min 0,0 UV-I 0 W/m 10,2 C 11,8 C 3,2 km/h (1 Bft)
04.10.2021 22:54 11,8 C 11,1 C 15,6 C 90 % 1018,7 hPa 0,0 l/m 0,4 km/h (0 Bft) S 171 0 min 0,0 UV-I 0 W/m 10,2 C 11,8 C 1,6 km/h (1 Bft)
04.10.2021 22:56 11,8 C 11,1 C 15,6 C 90 % 1018,7 hPa 0,0 l/m 0,0 km/h (0 Bft) S 171 0 min 0,0 UV-I 0 W/m 10,2 C 11,8 C 0,0 km/h (0 Bft)
04.10.2021 22:58 11,8 C 11,1 C 15,6 C 90 % 1018,8 hPa 0,0 l/m 0,9 km/h (0 Bft) S 171 0 min 0,0 UV-I 0 W/m 10,2 C 11,8 C 3,2 km/h (1 Bft)
04.10.2021 23:00 11,8 C 11,1 C 15,6 C 90 % 1018,8 hPa 0,0 l/m 0,8 km/h (0 Bft) S 170 0 min 0,0 UV-I 0 W/m 10,2 C 11,8 C 3,2 km/h (1 Bft)
04.10.2021 23:02 11,8 C 11,1 C 15,6 C 90 % 1018,7 hPa 0,0 l/m 0,0 km/h (0 Bft) S 171 0 min 0,0 UV-I 0 W/m 10,2 C 11,8 C 1,6 km/h (1 Bft)
04.10.2021 23:04 11,8 C 11,1 C 15,6 C 90 % 1018,7 hPa 0,0 l/m 0,6 km/h (0 Bft) S 171 0 min 0,0 UV-I 0 W/m 10,2 C 11,8 C 1,6 km/h (1 Bft)
04.10.2021 23:06 11,8 C 11,1 C 15,6 C 89 % 1018,6 hPa 0,0 l/m 0,1 km/h (0 Bft) S 171 0 min 0,0 UV-I 0 W/m 10,0 C 11,8 C 1,6 km/h (1 Bft)
04.10.2021 23:08 11,8 C 11,1 C 15,6 C 89 % 1018,6 hPa 0,0 l/m 0,0 km/h (0 Bft) S 170 0 min 0,0 UV-I 0 W/m 10,0 C 11,8 C 1,6 km/h (1 Bft)
04.10.2021 23:10 11,8 C 11,1 C 15,6 C 89 % 1018,6 hPa 0,0 l/m 0,0 km/h (0 Bft) S 170 0 min 0,0 UV-I 0 W/m 10,0 C 11,8 C 0,0 km/h (0 Bft)
04.10.2021 23:12 11,8 C 11,1 C 15,6 C 89 % 1018,5 hPa 0,0 l/m 0,0 km/h (0 Bft) S 171 0 min 0,0 UV-I 0 W/m 10,0 C 11,8 C 0,0 km/h (0 Bft)
04.10.2021 23:14 11,7 C 11,1 C 15,6 C 90 % 1018,5 hPa 0,0 l/m 0,0 km/h (0 Bft) S 171 0 min 0,0 UV-I 0 W/m 10,1 C 11,7 C 0,0 km/h (0 Bft)
04.10.2021 23:16 11,7 C 11,1 C 15,6 C 90 % 1018,6 hPa 0,0 l/m 0,1 km/h (0 Bft) S 170 0 min 0,0 UV-I 0 W/m 10,1 C 11,7 C 1,6 km/h (1 Bft)
04.10.2021 23:18 11,7 C 11,1 C 15,6 C 90 % 1018,7 hPa 0,0 l/m 1,0 km/h (0 Bft) S 170 0 min 0,0 UV-I 0 W/m 10,1 C 11,7 C 3,2 km/h (1 Bft)
04.10.2021 23:20 11,8 C 11,1 C 15,6 C 90 % 1018,7 hPa 0,0 l/m 2,0 km/h (1 Bft) S 171 0 min 0,0 UV-I 0 W/m 10,2 C 11,8 C 3,2 km/h (1 Bft)
04.10.2021 23:22 11,8 C 11,1 C 15,6 C 90 % 1018,7 hPa 0,0 l/m 0,9 km/h (0 Bft) S 170 0 min 0,0 UV-I 0 W/m 10,2 C 11,8 C 3,2 km/h (1 Bft)
04.10.2021 23:24 11,8 C 11,1 C 15,6 C 90 % 1018,7 hPa 0,0 l/m 1,8 km/h (1 Bft) S 171 0 min 0,0 UV-I 0 W/m 10,2 C 11,8 C 3,2 km/h (1 Bft)
04.10.2021 23:26 11,8 C 11,1 C 15,6 C 90 % 1018,7 hPa 0,0 l/m 2,5 km/h (1 Bft) SW 218 0 min 0,0 UV-I 0 W/m 10,2 C 11,8 C 4,8 km/h (1 Bft)
04.10.2021 23:28 11,8 C 11,1 C 15,6 C 90 % 1018,7 hPa 0,0 l/m 0,9 km/h (0 Bft) SW 218 0 min 0,0 UV-I 0 W/m 10,2 C 11,8 C 3,2 km/h (1 Bft)
04.10.2021 23:30 11,8 C 11,1 C 15,6 C 90 % 1018,7 hPa 0,0 l/m 1,7 km/h (1 Bft) S-SW 194 0 min 0,0 UV-I 0 W/m 10,2 C 11,8 C 4,8 km/h (1 Bft)
04.10.2021 23:32 11,9 C 11,1 C 15,6 C 90 % 1018,6 hPa 0,0 l/m 1,9 km/h (1 Bft) S-SW 194 0 min 0,0 UV-I 0 W/m 10,3 C 11,9 C 4,8 km/h (1 Bft)
04.10.2021 23:34 11,9 C 11,1 C 15,6 C 90 % 1018,6 hPa 0,0 l/m 0,9 km/h (0 Bft) S-SW 194 0 min 0,0 UV-I 0 W/m 10,3 C 11,9 C 1,6 km/h (1 Bft)
04.10.2021 23:36 11,9 C 11,1 C 15,6 C 90 % 1018,6 hPa 0,0 l/m 2,2 km/h (1 Bft) S-SW 202 0 min 0,0 UV-I 0 W/m 10,3 C 11,9 C 4,8 km/h (1 Bft)
04.10.2021 23:38 11,9 C 11,1 C 15,6 C 90 % 1018,6 hPa 0,0 l/m 1,6 km/h (1 Bft) S-SW 202 0 min 0,0 UV-I 0 W/m 10,3 C 11,9 C 3,2 km/h (1 Bft)
04.10.2021 23:40 11,9 C 11,1 C 15,6 C 90 % 1018,6 hPa 0,0 l/m 0,6 km/h (0 Bft) S-SW 202 0 min 0,0 UV-I 0 W/m 10,3 C 11,9 C 1,6 km/h (1 Bft)
04.10.2021 23:42 11,9 C 11,1 C 15,6 C 90 % 1018,5 hPa 0,0 l/m 0,4 km/h (0 Bft) S-SW 202 0 min 0,0 UV-I 0 W/m 10,3 C 11,9 C 3,2 km/h (1 Bft)
04.10.2021 23:44 11,9 C 11,7 C 15,6 C 90 % 1018,6 hPa 0,0 l/m 0,0 km/h (0 Bft) S-SW 202 0 min 0,0 UV-I 0 W/m 10,3 C 11,9 C 0,0 km/h (0 Bft)
04.10.2021 23:46 11,9 C 11,1 C 15,6 C 90 % 1018,6 hPa 0,0 l/m 0,0 km/h (0 Bft) S-SW 202 0 min 0,0 UV-I 0 W/m 10,3 C 11,9 C 0,0 km/h (0 Bft)
04.10.2021 23:48 11,9 C 11,1 C 15,6 C 90 % 1018,6 hPa 0,0 l/m 0,0 km/h (0 Bft) S-SW 202 0 min 0,0 UV-I 0 W/m 10,3 C 11,9 C 0,0 km/h (0 Bft)
04.10.2021 23:50 11,9 C 11,1 C 15,6 C 90 % 1018,5 hPa 0,0 l/m 0,1 km/h (0 Bft) S-SW 202 0 min 0,0 UV-I 0 W/m 10,3 C 11,9 C 1,6 km/h (1 Bft)
04.10.2021 23:52 11,9 C 11,1 C 15,6 C 90 % 1018,5 hPa 0,0 l/m 0,0 km/h (0 Bft) S-SW 202 0 min 0,0 UV-I 0 W/m 10,3 C 11,9 C 0,0 km/h (0 Bft)
04.10.2021 23:54 11,9 C 11,1 C 15,6 C 90 % 1018,5 hPa 0,0 l/m 0,0 km/h (0 Bft) S-SW 202 0 min 0,0 UV-I 0 W/m 10,3 C 11,9 C 0,0 km/h (0 Bft)
04.10.2021 23:56 11,9 C 11,1 C 15,6 C 90 % 1018,5 hPa 0,0 l/m 0,1 km/h (0 Bft) S-SW 202 0 min 0,0 UV-I 0 W/m 10,3 C 11,9 C 1,6 km/h (1 Bft)
04.10.2021 23:58 11,9 C 11,1 C 15,6 C 90 % 1018,4 hPa 0,0 l/m 0,0 km/h (0 Bft) S-SW 202 0 min 0,0 UV-I 0 W/m 10,3 C 11,9 C 0,0 km/h (0 Bft)
_ Min-Zeit 22:22 22:30 23:58 01:10 00:26 - 23:58 - - - - - 22:20 22:22 23:58
Minimum _ 11,6 C 10,6 C 15,6 C 79 % 1011,8 hPa - 0,0 km/h (0 Bft) - - - - - 9,8 C 11,6 C 0,0 km/h (0 Bft)
_ Max-Zeit 01:10 14:26 20:08 23:58 14:08 16:24 02:26 - - 23:58 14:16 11:34 00:24 01:10 02:24
Maximum _ 17,1 C 16,1 C 16,1 C 90 % 1019,9 hPa 0,2 l/m 11,0 km/h
NW (2 Bft)
- - 0 min 1,0 UV-I 141 W/m 13,7 C 17,1 C 22,5 km/h
NW (4 Bft)
Durchschnitt _ 13,9 C 13,2 C 15,8 C 86 % 1017,6 hPa #1,4 l/m 2,2 km/h (1 Bft) W - #0 min. 0,6 UV-I 55 W/m 11,5 C 13,9 C 4,3 km/h (1 Bft)